| time (UTC) | temp C | wind direction | speed KPH | gust KPH | rain 1hr cm | rain 24hr cm | rain mn cm | humidity % | barometer mb |
| 20260502183402 | 8 | 316 | 3.2 | 8.0 | 0.00 | 0.00 | 0.00 | 42 | 1016.5 |
| 20260502183302 | 8 | 298 | 3.2 | 11.3 | 0.00 | 0.00 | 0.00 | 42 | 1016.5 |
| 20260502183202 | 8 | 280 | 3.2 | 11.3 | 0.00 | 0.00 | 0.00 | 43 | 1016.5 |
| 20260502183102 | 8 | 270 | 3.2 | 11.3 | 0.00 | 0.00 | 0.00 | 45 | 1016.5 |
| 20260502183002 | 8 | 276 | 3.2 | 11.3 | 0.00 | 0.00 | 0.00 | 45 | 1016.5 |
| 20260502182923 | 8 | 277 | 3.2 | 11.3 | 0.00 | 0.00 | 0.00 | 42 | 1016.5 |
| 20260502182802 | 8 | 288 | 3.2 | 11.3 | 0.00 | 0.00 | 0.00 | 41 | 1016.5 |
| 20260502182702 | 8 | 283 | 3.2 | 11.3 | 0.00 | 0.00 | 0.00 | 41 | 1016.5 |
| 20260502182602 | 8 | 271 | 1.6 | 11.3 | 0.00 | 0.00 | 0.00 | 43 | 1016.4 |
| 20260502182502 | 9 | 269 | 1.6 | 11.3 | 0.00 | 0.00 | 0.00 | 43 | 1016.4 |
| 20260502182402 | 9 | 288 | 1.6 | 11.3 | 0.00 | 0.00 | 0.00 | 40 | 1016.5 |
| 20260502182304 | 9 | 317 | 1.6 | 6.4 | 0.00 | 0.00 | 0.00 | 43 | 1016.5 |
| 20260502182202 | 9 | 335 | 1.6 | 6.4 | 0.00 | 0.00 | 0.00 | 42 | 1016.5 |
| 20260502182102 | 9 | 347 | 1.6 | 8.0 | 0.00 | 0.00 | 0.00 | 42 | 1016.5 |
| 20260502182023 | 8 | 349 | 3.2 | 8.0 | 0.00 | 0.00 | 0.00 | 42 | 1016.5 |
| 20260502181902 | 8 | 350 | 3.2 | 8.0 | 0.00 | 0.00 | 0.00 | 43 | 1016.5 |
| 20260502181802 | 8 | 348 | 3.2 | 8.0 | 0.00 | 0.00 | 0.00 | 44 | 1016.5 |
| 20260502181702 | 8 | 346 | 3.2 | 8.0 | 0.00 | 0.00 | 0.00 | 44 | 1016.6 |
| 20260502181624 | 8 | 348 | 3.2 | 8.0 | 0.00 | 0.00 | 0.00 | 47 | 1016.6 |
| 20260502181502 | 8 | 347 | 3.2 | 8.0 | 0.00 | 0.00 | 0.00 | 45 | 1016.6 |
| 20260502181402 | 8 | 344 | 3.2 | 8.0 | 0.00 | 0.00 | 0.00 | 43 | 1016.6 |
| 20260502181302 | 8 | 342 | 3.2 | 8.0 | 0.00 | 0.00 | 0.00 | 43 | 1016.6 |
| 20260502181202 | 8 | 337 | 1.6 | 8.0 | 0.00 | 0.00 | 0.00 | 42 | 1016.7 |
| 20260502181102 | 8 | 328 | 1.6 | 6.4 | 0.00 | 0.00 | 0.00 | 43 | 1016.6 |
| 20260502181002 | 8 | 316 | 1.6 | 6.4 | 0.00 | 0.00 | 0.00 | 43 | 1016.6 |
| 20260502180902 | 8 | 272 | 1.6 | 9.7 | 0.00 | 0.00 | 0.00 | 42 | 1016.7 |
| 20260502180802 | 8 | 250 | 1.6 | 9.7 | 0.00 | 0.00 | 0.00 | 43 | 1016.7 |
| 20260502180723 | 8 | 242 | 3.2 | 9.7 | 0.00 | 0.00 | 0.00 | 44 | 1016.7 |
| 20260502180602 | 8 | 237 | 3.2 | 9.7 | 0.00 | 0.00 | 0.00 | 42 | 1016.6 |
| 20260502180502 | 8 | 232 | 3.2 | 9.7 | 0.00 | 0.00 | 0.00 | 41 | 1016.6 |
| 20260502180423 | 8 | 229 | 3.2 | 9.7 | 0.00 | 0.00 | 0.00 | 44 | 1016.7 |
| 20260502180323 | 8 | 230 | 3.2 | 9.7 | 0.00 | 0.00 | 0.00 | 40 | 1016.7 |
| 20260502180223 | 8 | 227 | 3.2 | 9.7 | 0.00 | 0.00 | 0.00 | 42 | 1016.7 |
| 20260502170402 | 7 | 273 | 1.6 | 9.7 | 0.00 | 0.00 | 0.00 | 42 | 1017.0 |
| 20260502170323 | 8 | 260 | 1.6 | 9.7 | 0.00 | 0.00 | 0.00 | 42 | 1017.0 |
| 20260502170202 | 8 | 269 | 1.6 | 9.7 | 0.00 | 0.00 | 0.00 | 41 | 1017.1 |
| 20260502164302 | 7 | 5 | 3.2 | 8.0 | 0.00 | 0.00 | 0.00 | 43 | 1017.2 |
| 20260502164202 | 7 | 5 | 3.2 | 8.0 | 0.00 | 0.00 | 0.00 | 41 | 1017.2 |
| 20260502164102 | 7 | 1 | 3.2 | 8.0 | 0.00 | 0.00 | 0.00 | 44 | 1017.2 |
| 20260502164002 | 7 | 358 | 3.2 | 6.4 | 0.00 | 0.00 | 0.00 | 42 | 1017.2 |
| 20260502163902 | 7 | 358 | 1.6 | 6.4 | 0.00 | 0.00 | 0.00 | 43 | 1017.1 |
| 20260502163802 | 7 | 352 | 1.6 | 6.4 | 0.00 | 0.00 | 0.00 | 41 | 1017.1 |
| 20260502163723 | 7 | 349 | 1.6 | 6.4 | 0.00 | 0.00 | 0.00 | 43 | 1017.1 |
| 20260502163602 | 7 | 350 | 1.6 | 6.4 | 0.00 | 0.00 | 0.00 | 46 | 1017.2 |
| 20260502163523 | 7 | 349 | 3.2 | 6.4 | 0.00 | 0.00 | 0.00 | 46 | 1017.2 |
| 20260502163402 | 7 | 348 | 3.2 | 6.4 | 0.00 | 0.00 | 0.00 | 43 | 1017.2 |
| 20260502163302 | 7 | 347 | 1.6 | 6.4 | 0.00 | 0.00 | 0.00 | 45 | 1017.2 |
| 20260502163202 | 7 | 344 | 1.6 | 6.4 | 0.00 | 0.00 | 0.00 | 50 | 1017.2 |
| 20260502163123 | 7 | 345 | 1.6 | 6.4 | 0.00 | 0.00 | 0.00 | 50 | 1017.3 |
| 20260502163002 | 7 | 344 | 3.2 | 8.0 | 0.00 | 0.00 | 0.00 | 47 | 1017.3 |
| 20260502162902 | 7 | 344 | 3.2 | 8.0 | 0.00 | 0.00 | 0.00 | 44 | 1017.3 |
| 20260502162802 | 7 | 347 | 3.2 | 8.0 | 0.00 | 0.00 | 0.00 | 44 | 1017.3 |
| 20260502162723 | 7 | 349 | 3.2 | 8.0 | 0.00 | 0.00 | 0.00 | 43 | 1017.3 |
| 20260502162602 | 7 | 354 | 3.2 | 8.0 | 0.00 | 0.00 | 0.00 | 45 | 1017.3 |
| 20260502162523 | 7 | 357 | 3.2 | 8.0 | 0.00 | 0.00 | 0.00 | 45 | 1017.3 |
| 20260502162402 | 7 | 359 | 3.2 | 8.0 | 0.00 | 0.00 | 0.00 | 46 | 1017.3 |
| 20260502162304 | 7 | 355 | 3.2 | 8.0 | 0.00 | 0.00 | 0.00 | 46 | 1017.3 |
| 20260502162223 | 7 | 357 | 3.2 | 8.0 | 0.00 | 0.00 | 0.00 | 44 | 1017.3 |
| 20260502162102 | 7 | 355 | 3.2 | 9.7 | 0.00 | 0.00 | 0.00 | 45 | 1017.3 |
| 20260502162002 | 7 | 358 | 3.2 | 9.7 | 0.00 | 0.00 | 0.00 | 45 | 1017.2 |
| 20260502161902 | 7 | 359 | 3.2 | 9.7 | 0.00 | 0.00 | 0.00 | 44 | 1017.2 |
| 20260502161802 | 7 | 360 | 3.2 | 9.7 | 0.00 | 0.00 | 0.00 | 43 | 1017.2 |
| 20260502161702 | 7 | 2 | 3.2 | 9.7 | 0.00 | 0.00 | 0.00 | 43 | 1017.2 |
| 20260502161602 | 7 | 356 | 3.2 | 9.7 | 0.00 | 0.00 | 0.00 | 43 | 1017.2 |
| 20260502161502 | 7 | 351 | 3.2 | 9.7 | 0.00 | 0.00 | 0.00 | 42 | 1017.3 |
| 20260502161402 | 7 | 355 | 3.2 | 9.7 | 0.00 | 0.00 | 0.00 | 43 | 1017.3 |
| 20260502161302 | 7 | 357 | 3.2 | 9.7 | 0.00 | 0.00 | 0.00 | 41 | 1017.3 |
| 20260502161202 | 7 | 353 | 3.2 | 9.7 | 0.00 | 0.00 | 0.00 | 44 | 1017.3 |
| 20260502161102 | 7 | 353 | 3.2 | 8.0 | 0.00 | 0.00 | 0.00 | 44 | 1017.3 |
| 20260502161002 | 7 | 348 | 3.2 | 8.0 | 0.00 | 0.00 | 0.00 | 45 | 1017.3 |
| 20260502160902 | 6 | 344 | 3.2 | 8.0 | 0.00 | 0.00 | 0.00 | 43 | 1017.3 |
| 20260502160802 | 6 | 337 | 3.2 | 8.0 | 0.00 | 0.00 | 0.00 | 45 | 1017.4 |
| 20260502160702 | 6 | 329 | 3.2 | 8.0 | 0.00 | 0.00 | 0.00 | 44 | 1017.4 |
| 20260502160602 | 6 | 326 | 3.2 | 8.0 | 0.00 | 0.00 | 0.00 | 44 | 1017.4 |
| 20260502160502 | 6 | 322 | 3.2 | 8.0 | 0.00 | 0.00 | 0.00 | 44 | 1017.4 |
| 20260502160402 | 6 | 313 | 3.2 | 8.0 | 0.00 | 0.00 | 0.00 | 43 | 1017.4 |
| 20260502160302 | 7 | 294 | 1.6 | 6.4 | 0.00 | 0.00 | 0.00 | 43 | 1017.3 |
| 20260502160202 | 7 | 284 | 1.6 | 6.4 | 0.00 | 0.00 | 0.00 | 43 | 1017.3 |
| 20260502152305 | 6 | 355 | 3.2 | 14.5 | 0.00 | 0.00 | 0.00 | 47 | 1017.3 |
| 20260502152202 | 6 | 356 | 3.2 | 14.5 | 0.00 | 0.00 | 0.00 | 49 | 1017.3 |
| 20260502152102 | 6 | 357 | 3.2 | 12.9 | 0.00 | 0.00 | 0.00 | 47 | 1017.3 |
| 20260502152023 | 6 | 358 | 3.2 | 12.9 | 0.00 | 0.00 | 0.00 | 46 | 1017.3 |
| 20260502151902 | 6 | 2 | 3.2 | 9.7 | 0.00 | 0.00 | 0.00 | 46 | 1017.4 |
| 20260502151802 | 6 | 1 | 3.2 | 8.0 | 0.00 | 0.00 | 0.00 | 46 | 1017.3 |
| 20260502151702 | 6 | 360 | 3.2 | 9.7 | 0.00 | 0.00 | 0.00 | 46 | 1017.3 |
| 20260502151602 | 6 | 358 | 3.2 | 9.7 | 0.00 | 0.00 | 0.00 | 48 | 1017.3 |
| 20260502151502 | 6 | 356 | 3.2 | 9.7 | 0.00 | 0.00 | 0.00 | 47 | 1017.3 |
| 20260502151402 | 6 | 360 | 3.2 | 9.7 | 0.00 | 0.00 | 0.00 | 50 | 1017.2 |
| 20260502151302 | 6 | 4 | 3.2 | 9.7 | 0.00 | 0.00 | 0.00 | 49 | 1017.3 |
| 20260502151202 | 6 | 7 | 3.2 | 9.7 | 0.00 | 0.00 | 0.00 | 46 | 1017.3 |
| 20260502151102 | 6 | 9 | 3.2 | 9.7 | 0.00 | 0.00 | 0.00 | 48 | 1017.3 |
| 20260502151002 | 6 | 7 | 3.2 | 9.7 | 0.00 | 0.00 | 0.00 | 48 | 1017.3 |
| 20260502150902 | 6 | 7 | 3.2 | 11.3 | 0.00 | 0.00 | 0.00 | 46 | 1017.3 |
| 20260502150802 | 6 | 9 | 3.2 | 11.3 | 0.00 | 0.00 | 0.00 | 47 | 1017.3 |
| 20260502150723 | 6 | 7 | 3.2 | 11.3 | 0.00 | 0.00 | 0.00 | 47 | 1017.3 |
| 20260502150602 | 6 | 8 | 3.2 | 11.3 | 0.00 | 0.00 | 0.00 | 48 | 1017.3 |
| 20260502150502 | 6 | 7 | 3.2 | 11.3 | 0.00 | 0.00 | 0.00 | 47 | 1017.3 |
| 20260502150402 | 6 | 4 | 4.8 | 11.3 | 0.00 | 0.00 | 0.00 | 50 | 1017.3 |
| 20260502150302 | 6 | 4 | 4.8 | 11.3 | 0.00 | 0.00 | 0.00 | 48 | 1017.2 |
| 20260502150202 | 6 | 2 | 4.8 | 11.3 | 0.00 | 0.00 | 0.00 | 47 | 1017.2 |
| 20260502150123 | 6 | 358 | 4.8 | 11.3 | 0.00 | 0.00 | 0.00 | 47 | 1017.3 |
| 20260502130723 | 4 | 355 | 3.2 | 11.3 | 0.00 | 0.00 | 0.00 | 62 | 1017.4 |
| 20260502130602 | 4 | 355 | 3.2 | 11.3 | 0.00 | 0.00 | 0.00 | 62 | 1017.4 |
| 20260502130502 | 4 | 357 | 1.6 | 11.3 | 0.00 | 0.00 | 0.00 | 63 | 1017.4 |
| 20260502130423 | 4 | 3 | 1.6 | 8.0 | 0.00 | 0.00 | 0.00 | 63 | 1017.4 |
| 20260502130302 | 4 | 16 | 1.6 | 6.4 | 0.00 | 0.00 | 0.00 | 64 | 1017.4 |
| 20260502130202 | 4 | 25 | 1.6 | 6.4 | 0.00 | 0.00 | 0.00 | 64 | 1017.4 |
| 20260502123802 | 3 | 10 | 1.6 | 4.8 | 0.00 | 0.00 | 0.00 | 68 | 1017.3 |
| 20260502123702 | 3 | 12 | 3.2 | 4.8 | 0.00 | 0.00 | 0.00 | 68 | 1017.3 |
| 20260502123623 | 3 | 14 | 3.2 | 6.4 | 0.00 | 0.00 | 0.00 | 68 | 1017.2 |
| 20260502123502 | 3 | 14 | 3.2 | 6.4 | 0.00 | 0.00 | 0.00 | 68 | 1017.2 |
| 20260502123402 | 3 | 16 | 3.2 | 6.4 | 0.00 | 0.00 | 0.00 | 68 | 1017.3 |
| 20260502123302 | 3 | 17 | 3.2 | 6.4 | 0.00 | 0.00 | 0.00 | 68 | 1017.3 |
| 20260502123202 | 3 | 18 | 3.2 | 6.4 | 0.00 | 0.00 | 0.00 | 68 | 1017.3 |
| 20260502123102 | 3 | 18 | 3.2 | 6.4 | 0.00 | 0.00 | 0.00 | 69 | 1017.3 |
| 20260502123002 | 3 | 17 | 3.2 | 6.4 | 0.00 | 0.00 | 0.00 | 68 | 1017.3 |
| 20260502122902 | 3 | 18 | 3.2 | 6.4 | 0.00 | 0.00 | 0.00 | 68 | 1017.3 |
| 20260502122802 | 3 | 14 | 3.2 | 8.0 | 0.00 | 0.00 | 0.00 | 68 | 1017.3 |
| 20260502122702 | 3 | 10 | 3.2 | 8.0 | 0.00 | 0.00 | 0.00 | 69 | 1017.3 |
| 20260502122602 | 3 | 4 | 3.2 | 8.0 | 0.00 | 0.00 | 0.00 | 68 | 1017.3 |
| 20260502122502 | 3 | 1 | 3.2 | 8.0 | 0.00 | 0.00 | 0.00 | 69 | 1017.3 |
| 20260502122402 | 3 | 353 | 3.2 | 8.0 | 0.00 | 0.00 | 0.00 | 69 | 1017.3 |
| 20260502122305 | 3 | 351 | 3.2 | 8.0 | 0.00 | 0.00 | 0.00 | 69 | 1017.3 |
| 20260502122202 | 2 | 348 | 3.2 | 8.0 | 0.00 | 0.00 | 0.00 | 69 | 1017.3 |
| 20260502122123 | 2 | 347 | 3.2 | 8.0 | 0.00 | 0.00 | 0.00 | 69 | 1017.3 |
| 20260502122002 | 2 | 344 | 3.2 | 8.0 | 0.00 | 0.00 | 0.00 | 69 | 1017.3 |
| 20260502121902 | 2 | 345 | 3.2 | 8.0 | 0.00 | 0.00 | 0.00 | 70 | 1017.3 |
| 20260502121802 | 2 | 348 | 3.2 | 8.0 | 0.00 | 0.00 | 0.00 | 69 | 1017.3 |
| 20260502121702 | 2 | 351 | 3.2 | 8.0 | 0.00 | 0.00 | 0.00 | 70 | 1017.3 |
| 20260502121602 | 2 | 353 | 3.2 | 8.0 | 0.00 | 0.00 | 0.00 | 70 | 1017.2 |
| 20260502121502 | 2 | 355 | 3.2 | 8.0 | 0.00 | 0.00 | 0.00 | 70 | 1017.2 |
| 20260502121402 | 2 | 360 | 3.2 | 8.0 | 0.00 | 0.00 | 0.00 | 70 | 1017.2 |
| 20260502121302 | 2 | 360 | 3.2 | 6.4 | 0.00 | 0.00 | 0.00 | 70 | 1017.2 |
| 20260502121223 | 2 | 2 | 3.2 | 6.4 | 0.00 | 0.00 | 0.00 | 70 | 1017.2 |
| 20260502121102 | 2 | 6 | 3.2 | 6.4 | 0.00 | 0.00 | 0.00 | 71 | 1017.2 |
| 20260502121023 | 2 | 9 | 3.2 | 6.4 | 0.00 | 0.00 | 0.00 | 71 | 1017.2 |
| 20260502120902 | 2 | 10 | 3.2 | 4.8 | 0.00 | 0.00 | 0.00 | 71 | 1017.1 |
| 20260502120803 | 2 | 10 | 1.6 | 4.8 | 0.00 | 0.00 | 0.00 | 71 | 1017.1 |
| 20260502120702 | 2 | 11 | 1.6 | 4.8 | 0.00 | 0.00 | 0.00 | 71 | 1017.1 |
| 20260502120602 | 2 | 10 | 3.2 | 4.8 | 0.00 | 0.00 | 0.00 | 71 | 1017.1 |
| 20260502120502 | 2 | 8 | 1.6 | 4.8 | 0.00 | 0.00 | 0.00 | 72 | 1017.1 |
| 20260502120402 | 2 | 5 | 1.6 | 4.8 | 0.00 | 0.00 | 0.00 | 72 | 1017.1 |
| 20260502120302 | 2 | 5 | 1.6 | 4.8 | 0.00 | 0.00 | 0.00 | 72 | 1017.1 |
| 20260502120202 | 2 | 3 | 1.6 | 4.8 | 0.00 | 0.00 | 0.00 | 72 | 1017.1 |
| 20260502115902 | 2 | 3 | 1.6 | 6.4 | 0.00 | 0.00 | 0.00 | 72 | 1017.1 |
| 20260502115802 | 2 | 3 | 1.6 | 6.4 | 0.00 | 0.00 | 0.00 | 73 | 1017.1 |
| 20260502115702 | 2 | 359 | 1.6 | 6.4 | 0.00 | 0.00 | 0.00 | 73 | 1017.1 |
| 20260502115602 | 2 | 360 | 1.6 | 6.4 | 0.00 | 0.00 | 0.00 | 73 | 1017.1 |
| 20260502115502 | 2 | 359 | 1.6 | 6.4 | 0.00 | 0.00 | 0.00 | 74 | 1017.1 |
| 20260502115402 | 2 | 359 | 1.6 | 6.4 | 0.00 | 0.00 | 0.00 | 74 | 1017.1 |
| 20260502115305 | 2 | 359 | 3.2 | 6.4 | 0.00 | 0.00 | 0.00 | 73 | 1017.1 |
| 20260502115202 | 2 | 358 | 3.2 | 6.4 | 0.00 | 0.00 | 0.00 | 74 | 1017.1 |
| 20260502115102 | 1 | 355 | 3.2 | 6.4 | 0.00 | 0.00 | 0.00 | 73 | 1017.1 |
| 20260502115002 | 1 | 355 | 1.6 | 6.4 | 0.00 | 0.00 | 0.00 | 74 | 1017.1 |
| 20260502114902 | 1 | 355 | 1.6 | 6.4 | 0.00 | 0.00 | 0.00 | 74 | 1017.1 |
| 20260502114802 | 1 | 356 | 1.6 | 6.4 | 0.00 | 0.00 | 0.00 | 74 | 1017.1 |
| 20260502114702 | 1 | 358 | 1.6 | 6.4 | 0.00 | 0.00 | 0.00 | 74 | 1017.1 |
| 20260502114623 | 1 | 359 | 1.6 | 6.4 | 0.00 | 0.00 | 0.00 | 74 | 1017.1 |
| 20260502114502 | 1 | 358 | 1.6 | 6.4 | 0.00 | 0.00 | 0.00 | 74 | 1017.1 |
| 20260502114423 | 1 | 358 | 1.6 | 6.4 | 0.00 | 0.00 | 0.00 | 74 | 1017.1 |
| 20260502114202 | 1 | 357 | 1.6 | 3.2 | 0.00 | 0.00 | 0.00 | 76 | 1017.1 |
| 20260502114102 | 1 | 358 | 1.6 | 3.2 | 0.00 | 0.00 | 0.00 | 76 | 1017.1 |
| 20260502114002 | 1 | 359 | 1.6 | 3.2 | 0.00 | 0.00 | 0.00 | 75 | 1017.1 |
| 20260502113923 | 1 | 359 | 1.6 | 3.2 | 0.00 | 0.00 | 0.00 | 76 | 1017.1 |
| 20260502113802 | 1 | 1 | 1.6 | 3.2 | 0.00 | 0.00 | 0.00 | 76 | 1017.1 |
| 20260502113702 | 1 | 2 | 1.6 | 3.2 | 0.00 | 0.00 | 0.00 | 76 | 1017.0 |
| 20260502113602 | 1 | 358 | 0.0 | 3.2 | 0.00 | 0.00 | 0.00 | 77 | 1017.0 |
| 20260502113502 | 1 | 359 | 0.0 | 3.2 | 0.00 | 0.00 | 0.00 | 77 | 1017.1 |
| 20260502113423 | 1 | 360 | 0.0 | 3.2 | 0.00 | 0.00 | 0.00 | 77 | 1017.1 |
| 20260502113302 | 1 | 2 | 0.0 | 3.2 | 0.00 | 0.00 | 0.00 | 77 | 1017.1 |
| 20260502113202 | 1 | 3 | 0.0 | 1.6 | 0.00 | 0.00 | 0.00 | 78 | 1017.1 |
| 20260502113104 | 1 | 4 | 0.0 | 1.6 | 0.00 | 0.00 | 0.00 | 78 | 1017.0 |
| 20260502113002 | 0 | 4 | 0.0 | 1.6 | 0.00 | 0.00 | 0.00 | 79 | 1017.0 |
| 20260502112902 | 0 | 359 | 0.0 | 1.6 | 0.00 | 0.00 | 0.00 | 79 | 1017.0 |
| 20260502112823 | 0 | 348 | 0.0 | 1.6 | 0.00 | 0.00 | 0.00 | 79 | 1017.0 |
| 20260502112723 | 0 | 348 | 0.0 | 1.6 | 0.00 | 0.00 | 0.00 | 79 | 1017.1 |
| 20260502112602 | 0 | 0 | 0.0 | 0.0 | 0.00 | 0.00 | 0.00 | 80 | 1017.0 |
| 20260502112502 | 0 | 0 | 0.0 | 0.0 | 0.00 | 0.00 | 0.00 | 80 | 1017.0 |
| 20260502112402 | 0 | 0 | 0.0 | 0.0 | 0.00 | 0.00 | 0.00 | 80 | 1017.1 |
| 20260502112305 | 0 | 0 | 0.0 | 0.0 | 0.00 | 0.00 | 0.00 | 80 | 1017.1 |
| 20260502112202 | 0 | 0 | 0.0 | 0.0 | 0.00 | 0.00 | 0.00 | 80 | 1017.0 |
| 20260502112102 | 0 | 0 | 0.0 | 0.0 | 0.00 | 0.00 | 0.00 | 80 | 1016.9 |
| 20260502112002 | 0 | 0 | 0.0 | 0.0 | 0.00 | 0.00 | 0.00 | 80 | 1016.9 |
| 20260502111902 | 0 | 348 | 0.0 | 1.6 | 0.00 | 0.00 | 0.00 | 80 | 1016.9 |
| 20260502111802 | 0 | 348 | 0.0 | 1.6 | 0.00 | 0.00 | 0.00 | 80 | 1016.9 |
| 20260502111702 | 0 | 348 | 0.0 | 1.6 | 0.00 | 0.00 | 0.00 | 80 | 1016.9 |
| 20260502111602 | 0 | 351 | 0.0 | 1.6 | 0.00 | 0.00 | 0.00 | 79 | 1016.9 |
| 20260502111502 | 0 | 351 | 0.0 | 1.6 | 0.00 | 0.00 | 0.00 | 79 | 1016.9 |
| 20260502111423 | 0 | 351 | 0.0 | 1.6 | 0.00 | 0.00 | 0.00 | 80 | 1016.9 |
| 20260502111302 | 0 | 351 | 0.0 | 1.6 | 0.00 | 0.00 | 0.00 | 80 | 1016.8 |
| 20260502111202 | 0 | 351 | 0.0 | 1.6 | 0.00 | 0.00 | 0.00 | 80 | 1016.8 |
| 20260502111102 | 0 | 351 | 0.0 | 1.6 | 0.00 | 0.00 | 0.00 | 80 | 1016.8 |
| 20260502111002 | 0 | 351 | 0.0 | 1.6 | 0.00 | 0.00 | 0.00 | 81 | 1016.8 |
| 20260502110902 | 0 | 352 | 0.0 | 1.6 | 0.00 | 0.00 | 0.00 | 81 | 1016.9 |
| 20260502110802 | 0 | 352 | 0.0 | 1.6 | 0.00 | 0.00 | 0.00 | 81 | 1016.8 |
| 20260502110723 | 0 | 352 | 0.0 | 1.6 | 0.00 | 0.00 | 0.00 | 81 | 1016.8 |
| 20260502110602 | 0 | 0 | 0.0 | 0.0 | 0.00 | 0.00 | 0.00 | 82 | 1016.9 |
| 20260502110523 | 0 | 0 | 0.0 | 0.0 | 0.00 | 0.00 | 0.00 | 82 | 1016.9 |
| 20260502110402 | 0 | 0 | 0.0 | 0.0 | 0.00 | 0.00 | 0.00 | 83 | 1016.9 |
| 20260502110302 | 0 | 0 | 0.0 | 0.0 | 0.00 | 0.00 | 0.00 | 83 | 1016.9 |
| 20260502110202 | 0 | 0 | 0.0 | 0.0 | 0.00 | 0.00 | 0.00 | 84 | 1016.9 |
| 20260502110002 | 0 | 0 | 0.0 | 0.0 | 0.00 | 0.00 | 0.00 | 84 | 1016.8 |
| 20260502105902 | 0 | 0 | 0.0 | 0.0 | 0.00 | 0.00 | 0.00 | 84 | 1016.9 |
| 20260502105802 | 0 | 0 | 0.0 | 0.0 | 0.00 | 0.00 | 0.00 | 84 | 1016.8 |
| 20260502105702 | 0 | 0 | 0.0 | 0.0 | 0.00 | 0.00 | 0.00 | 84 | 1016.8 |
| 20260502105602 | 0 | 0 | 0.0 | 0.0 | 0.00 | 0.00 | 0.00 | 85 | 1016.9 |
| 20260502105502 | 0 | 0 | 0.0 | 0.0 | 0.00 | 0.00 | 0.00 | 85 | 1016.9 |
| 20260502105402 | 0 | 0 | 0.0 | 0.0 | 0.00 | 0.00 | 0.00 | 85 | 1016.9 |
| 20260502105305 | 0 | 0 | 0.0 | 0.0 | 0.00 | 0.00 | 0.00 | 85 | 1016.8 |
| 20260502105202 | 0 | 0 | 0.0 | 0.0 | 0.00 | 0.00 | 0.00 | 85 | 1016.8 |
| 20260502105123 | 0 | 0 | 0.0 | 0.0 | 0.00 | 0.00 | 0.00 | 84 | 1016.8 |
| 20260502105002 | 0 | 0 | 0.0 | 0.0 | 0.00 | 0.00 | 0.00 | 84 | 1016.8 |
| 20260502104902 | 0 | 0 | 0.0 | 0.0 | 0.00 | 0.00 | 0.00 | 84 | 1016.8 |
| 20260502104802 | 0 | 0 | 0.0 | 0.0 | 0.00 | 0.00 | 0.00 | 84 | 1016.8 |
| 20260502104702 | 0 | 0 | 0.0 | 0.0 | 0.00 | 0.00 | 0.00 | 84 | 1016.8 |
| 20260502104602 | 0 | 0 | 0.0 | 0.0 | 0.00 | 0.00 | 0.00 | 84 | 1016.8 |
| 20260502104502 | 0 | 0 | 0.0 | 0.0 | 0.00 | 0.00 | 0.00 | 84 | 1016.8 |
| 20260502104423 | 0 | 0 | 0.0 | 0.0 | 0.00 | 0.00 | 0.00 | 84 | 1016.8 |
| 20260502104302 | 0 | 0 | 0.0 | 0.0 | 0.00 | 0.00 | 0.00 | 84 | 1016.7 |
| 20260502104202 | 0 | 0 | 0.0 | 0.0 | 0.00 | 0.00 | 0.00 | 84 | 1016.8 |
| 20260502104124 | 0 | 0 | 0.0 | 0.0 | 0.00 | 0.00 | 0.00 | 84 | 1016.8 |
| 20260502104002 | 0 | 0 | 0.0 | 0.0 | 0.00 | 0.00 | 0.00 | 84 | 1016.7 |
| 20260502103902 | 0 | 0 | 0.0 | 0.0 | 0.00 | 0.00 | 0.00 | 84 | 1016.7 |
| 20260502103802 | 0 | 0 | 0.0 | 0.0 | 0.00 | 0.00 | 0.00 | 84 | 1016.7 |
| 20260502103702 | 0 | 0 | 0.0 | 0.0 | 0.00 | 0.00 | 0.00 | 84 | 1016.8 |
| 20260502103602 | 0 | 0 | 0.0 | 0.0 | 0.00 | 0.00 | 0.00 | 84 | 1016.8 |
| 20260502103502 | 0 | 0 | 0.0 | 0.0 | 0.00 | 0.00 | 0.00 | 83 | 1016.8 |
| 20260502103402 | 0 | 0 | 0.0 | 0.0 | 0.00 | 0.00 | 0.00 | 84 | 1016.8 |
| 20260502103302 | 0 | 0 | 0.0 | 0.0 | 0.00 | 0.00 | 0.00 | 84 | 1016.8 |
| 20260502103202 | 0 | 0 | 0.0 | 0.0 | 0.00 | 0.00 | 0.00 | 83 | 1016.8 |
| 20260502103102 | 0 | 0 | 0.0 | 0.0 | 0.00 | 0.00 | 0.00 | 83 | 1016.8 |
| 20260502103002 | 0 | 0 | 0.0 | 0.0 | 0.00 | 0.00 | 0.00 | 83 | 1016.8 |
| 20260502102923 | 0 | 0 | 0.0 | 0.0 | 0.00 | 0.00 | 0.00 | 83 | 1016.8 |
| 20260502102823 | 0 | 0 | 0.0 | 0.0 | 0.00 | 0.00 | 0.00 | 83 | 1016.8 |
| 20260502102702 | 0 | 0 | 0.0 | 0.0 | 0.00 | 0.00 | 0.00 | 83 | 1016.8 |
| 20260502102602 | 0 | 0 | 0.0 | 0.0 | 0.00 | 0.00 | 0.00 | 83 | 1016.8 |
| 20260502102502 | 0 | 0 | 0.0 | 0.0 | 0.00 | 0.00 | 0.00 | 82 | 1016.8 |
| 20260502102402 | 0 | 0 | 0.0 | 0.0 | 0.00 | 0.00 | 0.00 | 82 | 1016.8 |
| 20260502102305 | 0 | 0 | 0.0 | 0.0 | 0.00 | 0.00 | 0.00 | 82 | 1016.8 |
| 20260502102203 | 0 | 0 | 0.0 | 0.0 | 0.00 | 0.00 | 0.00 | 82 | 1016.7 |
| 20260502102102 | 0 | 0 | 0.0 | 0.0 | 0.00 | 0.00 | 0.00 | 82 | 1016.7 |
| 20260502102002 | 0 | 0 | 0.0 | 0.0 | 0.00 | 0.00 | 0.00 | 82 | 1016.7 |
| 20260502101802 | 0 | 0 | 0.0 | 0.0 | 0.00 | 0.00 | 0.00 | 82 | 1016.7 |
| 20260502101602 | 0 | 0 | 0.0 | 0.0 | 0.00 | 0.00 | 0.00 | 82 | 1016.7 |
| 20260502101523 | 0 | 0 | 0.0 | 0.0 | 0.00 | 0.00 | 0.00 | 82 | 1016.7 |
| 20260502101402 | 0 | 0 | 0.0 | 0.0 | 0.00 | 0.00 | 0.00 | 82 | 1016.6 |
| 20260502101302 | 0 | 0 | 0.0 | 0.0 | 0.00 | 0.00 | 0.00 | 82 | 1016.6 |
| 20260502101202 | 0 | 0 | 0.0 | 0.0 | 0.00 | 0.00 | 0.00 | 82 | 1016.7 |
| 20260502101123 | 0 | 0 | 0.0 | 0.0 | 0.00 | 0.00 | 0.00 | 82 | 1016.7 |
| 20260502101002 | 0 | 0 | 0.0 | 0.0 | 0.00 | 0.00 | 0.00 | 82 | 1016.7 |
| 20260502100902 | 0 | 0 | 0.0 | 0.0 | 0.00 | 0.00 | 0.00 | 82 | 1016.6 |
| 20260502100823 | 0 | 0 | 0.0 | 0.0 | 0.00 | 0.00 | 0.00 | 82 | 1016.6 |
| 20260502100702 | 0 | 0 | 0.0 | 0.0 | 0.00 | 0.00 | 0.00 | 82 | 1016.6 |
| 20260502100602 | 0 | 0 | 0.0 | 0.0 | 0.00 | 0.00 | 0.00 | 82 | 1016.6 |
| 20260502100523 | 0 | 0 | 0.0 | 0.0 | 0.00 | 0.00 | 0.00 | 82 | 1016.6 |
| 20260502100402 | 0 | 0 | 0.0 | 0.0 | 0.00 | 0.00 | 0.00 | 81 | 1016.6 |
| 20260502100302 | 0 | 0 | 0.0 | 0.0 | 0.00 | 0.00 | 0.00 | 81 | 1016.6 |
| 20260502100202 | 0 | 0 | 0.0 | 0.0 | 0.00 | 0.00 | 0.00 | 81 | 1016.6 |
| 20260502091523 | 1 | 0 | 0.0 | 0.0 | 0.00 | 0.00 | 0.00 | 77 | 1016.4 |
| 20260502091402 | 1 | 0 | 0.0 | 0.0 | 0.00 | 0.00 | 0.00 | 77 | 1016.4 |
| 20260502091303 | 1 | 0 | 0.0 | 0.0 | 0.00 | 0.00 | 0.00 | 77 | 1016.3 |
| 20260502091202 | 1 | 0 | 0.0 | 0.0 | 0.00 | 0.00 | 0.00 | 76 | 1016.3 |
| 20260502091124 | 1 | 0 | 0.0 | 0.0 | 0.00 | 0.00 | 0.00 | 76 | 1016.3 |
| 20260502091002 | 1 | 0 | 0.0 | 0.0 | 0.00 | 0.00 | 0.00 | 76 | 1016.3 |
| 20260502090902 | 1 | 0 | 0.0 | 0.0 | 0.00 | 0.00 | 0.00 | 76 | 1016.3 |
| 20260502090802 | 1 | 0 | 0.0 | 0.0 | 0.00 | 0.00 | 0.00 | 76 | 1016.3 |
| 20260502090723 | 1 | 352 | 0.0 | 1.6 | 0.00 | 0.00 | 0.00 | 75 | 1016.3 |
| 20260502090602 | 1 | 352 | 0.0 | 1.6 | 0.00 | 0.00 | 0.00 | 75 | 1016.3 |
| 20260502090523 | 2 | 352 | 0.0 | 1.6 | 0.00 | 0.00 | 0.00 | 74 | 1016.3 |
| 20260502090423 | 2 | 352 | 0.0 | 1.6 | 0.00 | 0.00 | 0.00 | 74 | 1016.3 |
| 20260502090302 | 2 | 352 | 0.0 | 1.6 | 0.00 | 0.00 | 0.00 | 74 | 1016.2 |
| 20260502090223 | 2 | 352 | 0.0 | 1.6 | 0.00 | 0.00 | 0.00 | 73 | 1016.3 |
| 20260502071523 | 3 | 350 | 0.0 | 1.6 | 0.00 | 0.00 | 0.00 | 64 | 1015.8 |
| 20260502071402 | 3 | 350 | 0.0 | 1.6 | 0.00 | 0.00 | 0.00 | 64 | 1015.8 |
| 20260502071302 | 3 | 350 | 0.0 | 1.6 | 0.00 | 0.00 | 0.00 | 62 | 1015.8 |
| 20260502071223 | 3 | 350 | 0.0 | 1.6 | 0.00 | 0.00 | 0.00 | 62 | 1015.8 |
| 20260502071123 | 3 | 350 | 0.0 | 1.6 | 0.00 | 0.00 | 0.00 | 63 | 1015.8 |
| 20260502071002 | 3 | 350 | 0.0 | 1.6 | 0.00 | 0.00 | 0.00 | 62 | 1015.9 |
| 20260502070902 | 3 | 350 | 0.0 | 1.6 | 0.00 | 0.00 | 0.00 | 63 | 1015.9 |
| 20260502070802 | 3 | 350 | 0.0 | 1.6 | 0.00 | 0.00 | 0.00 | 63 | 1015.9 |
| 20260502070702 | 3 | 350 | 0.0 | 1.6 | 0.00 | 0.00 | 0.00 | 63 | 1015.9 |
| 20260502070602 | 3 | 350 | 0.0 | 1.6 | 0.00 | 0.00 | 0.00 | 62 | 1015.9 |
| 20260502070502 | 3 | 350 | 0.0 | 1.6 | 0.00 | 0.00 | 0.00 | 63 | 1015.9 |
| 20260502070402 | 3 | 350 | 0.0 | 1.6 | 0.00 | 0.00 | 0.00 | 62 | 1015.9 |
| 20260502070302 | 3 | 350 | 0.0 | 1.6 | 0.00 | 0.00 | 0.00 | 62 | 1016.0 |
| 20260502070202 | 3 | 0 | 0.0 | 0.0 | 0.00 | 0.00 | 0.00 | 65 | 1016.0 |
| 20260502070023 | 3 | 0 | 0.0 | 0.0 | 0.00 | 0.00 | 0.00 | 63 | 1015.9 |
| 20260502065924 | 3 | 0 | 0.0 | 0.0 | 0.00 | 0.00 | 0.00 | 63 | 1015.9 |
| 20260502065802 | 3 | 0 | 0.0 | 0.0 | 0.00 | 0.00 | 0.00 | 63 | 1015.9 |
| 20260502065702 | 3 | 0 | 0.0 | 0.0 | 0.00 | 0.00 | 0.00 | 63 | 1015.9 |
| 20260502065623 | 3 | 0 | 0.0 | 0.0 | 0.00 | 0.00 | 0.00 | 63 | 1015.9 |
| 20260502065502 | 3 | 0 | 0.0 | 0.0 | 0.00 | 0.00 | 0.00 | 62 | 1015.9 |
| 20260502065423 | 3 | 0 | 0.0 | 0.0 | 0.00 | 0.00 | 0.00 | 64 | 1015.9 |
| 20260502065305 | 4 | 0 | 0.0 | 0.0 | 0.00 | 0.00 | 0.00 | 64 | 1016.0 |
| 20260502065202 | 3 | 0 | 0.0 | 0.0 | 0.00 | 0.00 | 0.00 | 63 | 1016.0 |
| 20260502065102 | 3 | 0 | 0.0 | 0.0 | 0.00 | 0.00 | 0.00 | 62 | 1016.0 |
| 20260502065002 | 4 | 0 | 0.0 | 0.0 | 0.00 | 0.00 | 0.00 | 62 | 1016.0 |
| 20260502064902 | 4 | 0 | 0.0 | 0.0 | 0.00 | 0.00 | 0.00 | 62 | 1016.0 |
| 20260502064823 | 4 | 0 | 0.0 | 0.0 | 0.00 | 0.00 | 0.00 | 63 | 1016.0 |
| 20260502064702 | 4 | 0 | 0.0 | 0.0 | 0.00 | 0.00 | 0.00 | 64 | 1016.0 |
| 20260502064602 | 4 | 0 | 0.0 | 0.0 | 0.00 | 0.00 | 0.00 | 65 | 1016.0 |
| 20260502064502 | 4 | 0 | 0.0 | 0.0 | 0.00 | 0.00 | 0.00 | 63 | 1016.0 |
| 20260502064402 | 4 | 0 | 0.0 | 0.0 | 0.00 | 0.00 | 0.00 | 63 | 1016.0 |
| 20260502064302 | 4 | 0 | 0.0 | 0.0 | 0.00 | 0.00 | 0.00 | 63 | 1016.0 |
| 20260502064202 | 4 | 0 | 0.0 | 0.0 | 0.00 | 0.00 | 0.00 | 62 | 1016.0 |
| 20260502064102 | 4 | 0 | 0.0 | 0.0 | 0.00 | 0.00 | 0.00 | 63 | 1016.0 |
| 20260502064023 | 4 | 0 | 0.0 | 0.0 | 0.00 | 0.00 | 0.00 | 63 | 1016.0 |
| 20260502063902 | 4 | 0 | 0.0 | 0.0 | 0.00 | 0.00 | 0.00 | 64 | 1016.1 |
| 20260502063802 | 4 | 350 | 0.0 | 1.6 | 0.00 | 0.00 | 0.00 | 63 | 1016.1 |
| 20260502063702 | 4 | 350 | 0.0 | 1.6 | 0.00 | 0.00 | 0.00 | 62 | 1016.1 |
| 20260502063602 | 4 | 350 | 0.0 | 1.6 | 0.00 | 0.00 | 0.00 | 63 | 1016.1 |
| 20260502063502 | 4 | 350 | 0.0 | 1.6 | 0.00 | 0.00 | 0.00 | 64 | 1016.1 |
| 20260502063423 | 4 | 350 | 0.0 | 1.6 | 0.00 | 0.00 | 0.00 | 64 | 1016.1 |
| 20260502063302 | 4 | 350 | 0.0 | 1.6 | 0.00 | 0.00 | 0.00 | 65 | 1016.0 |
| 20260502063202 | 4 | 350 | 0.0 | 1.6 | 0.00 | 0.00 | 0.00 | 65 | 1016.1 |
| 20260502063102 | 4 | 350 | 0.0 | 1.6 | 0.00 | 0.00 | 0.00 | 65 | 1016.1 |
| 20260502063002 | 4 | 350 | 0.0 | 1.6 | 0.00 | 0.00 | 0.00 | 64 | 1016.0 |
| 20260502062902 | 4 | 350 | 0.0 | 1.6 | 0.00 | 0.00 | 0.00 | 63 | 1016.0 |
| 20260502062802 | 4 | 350 | 0.0 | 1.6 | 0.00 | 0.00 | 0.00 | 65 | 1016.1 |
| 20260502062723 | 4 | 350 | 0.0 | 1.6 | 0.00 | 0.00 | 0.00 | 66 | 1016.1 |
| 20260502062623 | 4 | 350 | 0.0 | 1.6 | 0.00 | 0.00 | 0.00 | 64 | 1016.1 |
| 20260502062502 | 4 | 350 | 0.0 | 1.6 | 0.00 | 0.00 | 0.00 | 64 | 1016.1 |
| 20260502062402 | 4 | 350 | 0.0 | 1.6 | 0.00 | 0.00 | 0.00 | 64 | 1016.1 |
| 20260502062305 | 4 | 350 | 0.0 | 1.6 | 0.00 | 0.00 | 0.00 | 63 | 1016.1 |
| 20260502062202 | 4 | 350 | 0.0 | 1.6 | 0.00 | 0.00 | 0.00 | 65 | 1016.2 |
| 20260502062102 | 4 | 350 | 0.0 | 1.6 | 0.00 | 0.00 | 0.00 | 64 | 1016.2 |
| 20260502062002 | 4 | 350 | 0.0 | 1.6 | 0.00 | 0.00 | 0.00 | 65 | 1016.1 |
| 20260502061902 | 4 | 0 | 0.0 | 0.0 | 0.00 | 0.00 | 0.00 | 64 | 1016.2 |
| 20260502061802 | 4 | 0 | 0.0 | 0.0 | 0.00 | 0.00 | 0.00 | 66 | 1016.2 |
| 20260502061702 | 4 | 0 | 0.0 | 0.0 | 0.00 | 0.00 | 0.00 | 65 | 1016.2 |
| 20260502061523 | 4 | 0 | 0.0 | 0.0 | 0.00 | 0.00 | 0.00 | 64 | 1016.2 |
| 20260502061402 | 4 | 0 | 0.0 | 0.0 | 0.00 | 0.00 | 0.00 | 64 | 1016.2 |
| 20260502061302 | 4 | 0 | 0.0 | 0.0 | 0.00 | 0.00 | 0.00 | 64 | 1016.2 |
| 20260502061223 | 4 | 0 | 0.0 | 0.0 | 0.00 | 0.00 | 0.00 | 63 | 1016.2 |
| 20260502061102 | 4 | 0 | 0.0 | 0.0 | 0.00 | 0.00 | 0.00 | 67 | 1016.2 |
| 20260502061023 | 4 | 0 | 0.0 | 0.0 | 0.00 | 0.00 | 0.00 | 68 | 1016.2 |
| 20260502060923 | 4 | 0 | 0.0 | 0.0 | 0.00 | 0.00 | 0.00 | 66 | 1016.2 |
| 20260502060802 | 4 | 0 | 0.0 | 0.0 | 0.00 | 0.00 | 0.00 | 67 | 1016.2 |
| 20260502060702 | 4 | 0 | 0.0 | 0.0 | 0.00 | 0.00 | 0.00 | 67 | 1016.3 |
| 20260502060602 | 4 | 0 | 0.0 | 0.0 | 0.00 | 0.00 | 0.00 | 65 | 1016.3 |
| 20260502060502 | 4 | 0 | 0.0 | 0.0 | 0.00 | 0.00 | 0.00 | 64 | 1016.3 |
| 20260502060402 | 4 | 0 | 0.0 | 0.0 | 0.00 | 0.00 | 0.00 | 63 | 1016.3 |
| 20260502060323 | 4 | 0 | 0.0 | 0.0 | 0.00 | 0.00 | 0.00 | 63 | 1016.3 |
| 20260502060202 | 4 | 0 | 0.0 | 0.0 | 0.00 | 0.00 | 0.00 | 63 | 1016.2 |
| 20260502060002 | 4 | 0 | 0.0 | 0.0 | 0.00 | 0.00 | 0.00 | 63 | 1016.3 |
| 20260502055902 | 4 | 0 | 0.0 | 0.0 | 0.00 | 0.00 | 0.00 | 62 | 1016.3 |
| 20260502055823 | 4 | 0 | 0.0 | 0.0 | 0.00 | 0.00 | 0.00 | 64 | 1016.3 |
| 20260502055702 | 4 | 0 | 0.0 | 0.0 | 0.00 | 0.00 | 0.00 | 64 | 1016.3 |
| 20260502055602 | 4 | 0 | 0.0 | 0.0 | 0.00 | 0.00 | 0.00 | 64 | 1016.3 |
| 20260502055502 | 4 | 0 | 0.0 | 0.0 | 0.00 | 0.00 | 0.00 | 64 | 1016.3 |
| 20260502055402 | 4 | 0 | 0.0 | 0.0 | 0.00 | 0.00 | 0.00 | 63 | 1016.3 |
| 20260502055305 | 4 | 0 | 0.0 | 0.0 | 0.00 | 0.00 | 0.00 | 64 | 1016.3 |
| 20260502055202 | 4 | 0 | 0.0 | 0.0 | 0.00 | 0.00 | 0.00 | 65 | 1016.3 |
| 20260502055102 | 4 | 0 | 0.0 | 0.0 | 0.00 | 0.00 | 0.00 | 63 | 1016.3 |
| 20260502055002 | 4 | 0 | 0.0 | 0.0 | 0.00 | 0.00 | 0.00 | 64 | 1016.3 |
| 20260502054923 | 4 | 0 | 0.0 | 0.0 | 0.00 | 0.00 | 0.00 | 62 | 1016.3 |
| 20260502054802 | 4 | 0 | 0.0 | 0.0 | 0.00 | 0.00 | 0.00 | 62 | 1016.3 |
| 20260502054702 | 4 | 0 | 0.0 | 0.0 | 0.00 | 0.00 | 0.00 | 62 | 1016.3 |
| 20260502054602 | 4 | 0 | 0.0 | 0.0 | 0.00 | 0.00 | 0.00 | 62 | 1016.3 |
| 20260502054502 | 4 | 0 | 0.0 | 0.0 | 0.00 | 0.00 | 0.00 | 63 | 1016.3 |
| 20260502054423 | 4 | 0 | 0.0 | 0.0 | 0.00 | 0.00 | 0.00 | 62 | 1016.3 |
| 20260502054302 | 4 | 0 | 0.0 | 0.0 | 0.00 | 0.00 | 0.00 | 63 | 1016.4 |
| 20260502054202 | 4 | 0 | 0.0 | 0.0 | 0.00 | 0.00 | 0.00 | 62 | 1016.4 |
| 20260502054102 | 4 | 0 | 0.0 | 0.0 | 0.00 | 0.00 | 0.00 | 63 | 1016.3 |
| 20260502054003 | 4 | 0 | 0.0 | 0.0 | 0.00 | 0.00 | 0.00 | 63 | 1016.3 |
| 20260502053902 | 4 | 0 | 0.0 | 0.0 | 0.00 | 0.00 | 0.00 | 62 | 1016.4 |
| 20260502053802 | 4 | 0 | 0.0 | 0.0 | 0.00 | 0.00 | 0.00 | 62 | 1016.4 |
| 20260502053723 | 4 | 0 | 0.0 | 0.0 | 0.00 | 0.00 | 0.00 | 62 | 1016.4 |
| 20260502053602 | 4 | 350 | 0.0 | 1.6 | 0.00 | 0.00 | 0.00 | 62 | 1016.4 |
| 20260502053502 | 4 | 347 | 0.0 | 1.6 | 0.00 | 0.00 | 0.00 | 62 | 1016.4 |
| 20260502053402 | 4 | 347 | 0.0 | 1.6 | 0.00 | 0.00 | 0.00 | 62 | 1016.3 |
| 20260502053302 | 4 | 347 | 0.0 | 1.6 | 0.00 | 0.00 | 0.00 | 62 | 1016.4 |
| 20260502053202 | 4 | 347 | 0.0 | 1.6 | 0.00 | 0.00 | 0.00 | 62 | 1016.4 |
| 20260502053102 | 4 | 347 | 0.0 | 1.6 | 0.00 | 0.00 | 0.00 | 62 | 1016.4 |
| 20260502053002 | 4 | 351 | 0.0 | 1.6 | 0.00 | 0.00 | 0.00 | 61 | 1016.4 |
| 20260502052902 | 4 | 358 | 0.0 | 1.6 | 0.00 | 0.00 | 0.00 | 62 | 1016.4 |
| 20260502052802 | 4 | 355 | 1.6 | 3.2 | 0.00 | 0.00 | 0.00 | 62 | 1016.4 |
| 20260502052702 | 4 | 353 | 1.6 | 3.2 | 0.00 | 0.00 | 0.00 | 62 | 1016.4 |
| 20260502052602 | 4 | 352 | 1.6 | 3.2 | 0.00 | 0.00 | 0.00 | 61 | 1016.3 |
| 20260502052502 | 4 | 352 | 1.6 | 3.2 | 0.00 | 0.00 | 0.00 | 60 | 1016.4 |
| 20260502052402 | 4 | 352 | 1.6 | 3.2 | 0.00 | 0.00 | 0.00 | 61 | 1016.4 |
| 20260502052323 | 4 | 351 | 1.6 | 3.2 | 0.00 | 0.00 | 0.00 | 63 | 1016.4 |
| 20260502052202 | 4 | 352 | 1.6 | 3.2 | 0.00 | 0.00 | 0.00 | 62 | 1016.4 |
| 20260502052102 | 4 | 352 | 1.6 | 3.2 | 0.00 | 0.00 | 0.00 | 61 | 1016.4 |
| 20260502052002 | 4 | 350 | 1.6 | 3.2 | 0.00 | 0.00 | 0.00 | 61 | 1016.4 |
| 20260502051923 | 4 | 347 | 1.6 | 3.2 | 0.00 | 0.00 | 0.00 | 61 | 1016.4 |
| 20260502051823 | 4 | 345 | 0.0 | 3.2 | 0.00 | 0.00 | 0.00 | 61 | 1016.4 |
| 20260502051702 | 4 | 345 | 0.0 | 3.2 | 0.00 | 0.00 | 0.00 | 61 | 1016.4 |
| 20260502051603 | 4 | 347 | 0.0 | 3.2 | 0.00 | 0.00 | 0.00 | 62 | 1016.4 |
| 20260502051502 | 4 | 348 | 0.0 | 3.2 | 0.00 | 0.00 | 0.00 | 60 | 1016.4 |
| 20260502051423 | 4 | 350 | 0.0 | 3.2 | 0.00 | 0.00 | 0.00 | 60 | 1016.4 |
| 20260502051302 | 4 | 356 | 0.0 | 1.6 | 0.00 | 0.00 | 0.00 | 62 | 1016.4 |
| 20260502051202 | 4 | 5 | 0.0 | 1.6 | 0.00 | 0.00 | 0.00 | 63 | 1016.3 |
| 20260502051102 | 4 | 6 | 0.0 | 1.6 | 0.00 | 0.00 | 0.00 | 61 | 1016.3 |
| 20260502051002 | 4 | 6 | 0.0 | 1.6 | 0.00 | 0.00 | 0.00 | 62 | 1016.3 |
| 20260502050902 | 4 | 6 | 0.0 | 1.6 | 0.00 | 0.00 | 0.00 | 61 | 1016.3 |
| 20260502050802 | 4 | 10 | 0.0 | 1.6 | 0.00 | 0.00 | 0.00 | 62 | 1016.3 |
| 20260502050702 | 4 | 10 | 0.0 | 1.6 | 0.00 | 0.00 | 0.00 | 63 | 1016.4 |
| 20260502050602 | 4 | 11 | 0.0 | 1.6 | 0.00 | 0.00 | 0.00 | 61 | 1016.4 |
| 20260502050502 | 4 | 9 | 0.0 | 1.6 | 0.00 | 0.00 | 0.00 | 61 | 1016.3 |
| 20260502050402 | 4 | 8 | 0.0 | 1.6 | 0.00 | 0.00 | 0.00 | 61 | 1016.3 |
| 20260502050302 | 4 | 5 | 0.0 | 1.6 | 0.00 | 0.00 | 0.00 | 62 | 1016.4 |
| 20260502050223 | 4 | 360 | 0.0 | 3.2 | 0.00 | 0.00 | 0.00 | 63 | 1016.4 |
| 20260502050123 | 4 | 356 | 0.0 | 3.2 | 0.00 | 0.00 | 0.00 | 62 | 1016.4 |
| 20260502050002 | 4 | 350 | 1.6 | 4.8 | 0.00 | 0.00 | 0.00 | 62 | 1016.3 |
| 20260502045923 | 4 | 350 | 1.6 | 6.4 | 0.00 | 0.00 | 0.00 | 61 | 1016.3 |
| 20260502045802 | 5 | 349 | 1.6 | 6.4 | 0.00 | 0.00 | 0.00 | 61 | 1016.3 |
| 20260502045702 | 4 | 349 | 1.6 | 6.4 | 0.00 | 0.00 | 0.00 | 63 | 1016.3 |
| 20260502045602 | 4 | 348 | 1.6 | 6.4 | 0.00 | 0.00 | 0.00 | 62 | 1016.3 |
| 20260502045502 | 4 | 346 | 1.6 | 6.4 | 0.00 | 0.00 | 0.00 | 63 | 1016.3 |
| 20260502045402 | 4 | 345 | 1.6 | 6.4 | 0.00 | 0.00 | 0.00 | 62 | 1016.2 |
| 20260502045305 | 4 | 344 | 1.6 | 6.4 | 0.00 | 0.00 | 0.00 | 62 | 1016.2 |
| 20260502045223 | 4 | 345 | 1.6 | 6.4 | 0.00 | 0.00 | 0.00 | 62 | 1016.3 |
| 20260502045102 | 5 | 341 | 1.6 | 6.4 | 0.00 | 0.00 | 0.00 | 62 | 1016.3 |
| 20260502045002 | 4 | 340 | 0.0 | 6.4 | 0.00 | 0.00 | 0.00 | 64 | 1016.2 |
| 20260502044902 | 5 | 336 | 0.0 | 1.6 | 0.00 | 0.00 | 0.00 | 66 | 1016.2 |
| 20260502044802 | 5 | 337 | 0.0 | 1.6 | 0.00 | 0.00 | 0.00 | 64 | 1016.2 |
| 20260502044723 | 5 | 337 | 0.0 | 1.6 | 0.00 | 0.00 | 0.00 | 64 | 1016.2 |
| 20260502044602 | 4 | 341 | 0.0 | 1.6 | 0.00 | 0.00 | 0.00 | 62 | 1016.2 |
| 20260502044502 | 4 | 340 | 0.0 | 1.6 | 0.00 | 0.00 | 0.00 | 63 | 1016.1 |
| 20260502044402 | 5 | 341 | 0.0 | 1.6 | 0.00 | 0.00 | 0.00 | 64 | 1016.1 |
| 20260502044302 | 4 | 340 | 0.0 | 1.6 | 0.00 | 0.00 | 0.00 | 65 | 1016.1 |
| 20260502044202 | 4 | 334 | 0.0 | 1.6 | 0.00 | 0.00 | 0.00 | 64 | 1016.1 |
| 20260502044123 | 4 | 340 | 0.0 | 1.6 | 0.00 | 0.00 | 0.00 | 64 | 1016.1 |
| 20260502044023 | 5 | 356 | 0.0 | 1.6 | 0.00 | 0.00 | 0.00 | 66 | 1016.0 |
| 20260502043902 | 5 | 356 | 0.0 | 1.6 | 0.00 | 0.00 | 0.00 | 66 | 1016.0 |
| 20260502043802 | 5 | 2 | 0.0 | 1.6 | 0.00 | 0.00 | 0.00 | 67 | 1016.0 |
| 20260502043702 | 5 | 2 | 0.0 | 1.6 | 0.00 | 0.00 | 0.00 | 67 | 1016.0 |
| 20260502043602 | 5 | 344 | 0.0 | 1.6 | 0.00 | 0.00 | 0.00 | 67 | 1016.0 |
| 20260502043502 | 5 | 0 | 0.0 | 0.0 | 0.00 | 0.00 | 0.00 | 67 | 1016.0 |
| 20260502043402 | 5 | 0 | 0.0 | 0.0 | 0.00 | 0.00 | 0.00 | 66 | 1016.0 |
| 20260502043323 | 5 | 0 | 0.0 | 0.0 | 0.00 | 0.00 | 0.00 | 66 | 1016.0 |
| 20260502043202 | 5 | 0 | 0.0 | 0.0 | 0.00 | 0.00 | 0.00 | 65 | 1015.9 |
| 20260502043102 | 5 | 0 | 0.0 | 0.0 | 0.00 | 0.00 | 0.00 | 66 | 1016.0 |
| 20260502043002 | 5 | 0 | 0.0 | 0.0 | 0.00 | 0.00 | 0.00 | 68 | 1016.0 |
| 20260502042902 | 5 | 0 | 0.0 | 0.0 | 0.00 | 0.00 | 0.00 | 66 | 1015.9 |
| 20260502042804 | 5 | 0 | 0.0 | 0.0 | 0.00 | 0.00 | 0.00 | 68 | 1015.9 |
| 20260502042702 | 5 | 344 | 0.0 | 3.2 | 0.00 | 0.00 | 0.00 | 67 | 1015.9 |
| 20260502042623 | 5 | 344 | 0.0 | 3.2 | 0.00 | 0.00 | 0.00 | 66 | 1015.9 |
| 20260502042502 | 5 | 349 | 0.0 | 3.2 | 0.00 | 0.00 | 0.00 | 65 | 1015.9 |
| 20260502042402 | 5 | 349 | 0.0 | 3.2 | 0.00 | 0.00 | 0.00 | 66 | 1015.9 |
| 20260502042305 | 5 | 349 | 0.0 | 3.2 | 0.00 | 0.00 | 0.00 | 66 | 1015.9 |
| 20260502042202 | 5 | 349 | 0.0 | 3.2 | 0.00 | 0.00 | 0.00 | 65 | 1015.9 |
| 20260502042102 | 5 | 349 | 0.0 | 3.2 | 0.00 | 0.00 | 0.00 | 64 | 1015.9 |
| 20260502042002 | 5 | 349 | 0.0 | 3.2 | 0.00 | 0.00 | 0.00 | 65 | 1015.9 |
| 20260502041902 | 5 | 349 | 0.0 | 3.2 | 0.00 | 0.00 | 0.00 | 65 | 1015.8 |
| 20260502041802 | 5 | 349 | 0.0 | 3.2 | 0.00 | 0.00 | 0.00 | 65 | 1015.9 |
| 20260502041702 | 5 | 354 | 0.0 | 3.2 | 0.00 | 0.00 | 0.00 | 65 | 1015.9 |
| 20260502041602 | 5 | 15 | 0.0 | 3.2 | 0.00 | 0.00 | 0.00 | 68 | 1015.8 |
| 20260502041502 | 5 | 0 | 0.0 | 0.0 | 0.00 | 0.00 | 0.00 | 67 | 1015.8 |
| 20260502041402 | 5 | 0 | 0.0 | 0.0 | 0.00 | 0.00 | 0.00 | 67 | 1015.8 |
| 20260502041302 | 5 | 0 | 0.0 | 0.0 | 0.00 | 0.00 | 0.00 | 67 | 1015.8 |
| 20260502041202 | 5 | 0 | 0.0 | 0.0 | 0.00 | 0.00 | 0.00 | 66 | 1015.8 |
| 20260502041102 | 5 | 0 | 0.0 | 0.0 | 0.00 | 0.00 | 0.00 | 67 | 1015.8 |
| 20260502041023 | 5 | 0 | 0.0 | 0.0 | 0.00 | 0.00 | 0.00 | 66 | 1015.8 |
| 20260502040902 | 5 | 133 | 0.0 | 1.6 | 0.00 | 0.00 | 0.00 | 66 | 1015.8 |
| 20260502040802 | 5 | 133 | 0.0 | 1.6 | 0.00 | 0.00 | 0.00 | 66 | 1015.8 |
| 20260502040702 | 5 | 133 | 0.0 | 1.6 | 0.00 | 0.00 | 0.00 | 65 | 1015.8 |
| 20260502040602 | 5 | 133 | 0.0 | 1.6 | 0.00 | 0.00 | 0.00 | 66 | 1015.8 |
| 20260502040523 | 5 | 126 | 0.0 | 1.6 | 0.00 | 0.00 | 0.00 | 66 | 1015.8 |
| 20260502040402 | 5 | 53 | 0.0 | 3.2 | 0.00 | 0.00 | 0.00 | 66 | 1015.8 |
| 20260502040302 | 5 | 53 | 0.0 | 3.2 | 0.00 | 0.00 | 0.00 | 66 | 1015.8 |
| 20260502040203 | 5 | 10 | 0.0 | 3.2 | 0.00 | 0.00 | 0.00 | 66 | 1015.8 |
| 20260502040002 | 5 | 358 | 1.6 | 3.2 | 0.00 | 0.00 | 0.00 | 66 | 1015.8 |
| 20260502035902 | 5 | 348 | 1.6 | 3.2 | 0.00 | 0.00 | 0.00 | 66 | 1015.8 |
| 20260502035802 | 5 | 347 | 1.6 | 3.2 | 0.00 | 0.00 | 0.00 | 65 | 1015.8 |
| 20260502035702 | 5 | 345 | 1.6 | 3.2 | 0.00 | 0.00 | 0.00 | 65 | 1015.7 |
| 20260502035623 | 5 | 350 | 1.6 | 3.2 | 0.00 | 0.00 | 0.00 | 65 | 1015.7 |
| 20260502035502 | 5 | 346 | 1.6 | 3.2 | 0.00 | 0.00 | 0.00 | 65 | 1015.7 |
| 20260502035402 | 5 | 353 | 1.6 | 3.2 | 0.00 | 0.00 | 0.00 | 65 | 1015.8 |
| 20260502035306 | 5 | 360 | 1.6 | 3.2 | 0.00 | 0.00 | 0.00 | 65 | 1015.7 |
| 20260502035202 | 5 | 8 | 1.6 | 4.8 | 0.00 | 0.00 | 0.00 | 65 | 1015.7 |
| 20260502035102 | 5 | 9 | 1.6 | 4.8 | 0.00 | 0.00 | 0.00 | 66 | 1015.7 |
| 20260502035002 | 5 | 13 | 1.6 | 4.8 | 0.00 | 0.00 | 0.00 | 65 | 1015.7 |
| 20260502034902 | 5 | 20 | 1.6 | 4.8 | 0.00 | 0.00 | 0.00 | 65 | 1015.7 |
| 20260502034823 | 5 | 19 | 1.6 | 4.8 | 0.00 | 0.00 | 0.00 | 65 | 1015.7 |
| 20260502034702 | 5 | 19 | 1.6 | 4.8 | 0.00 | 0.00 | 0.00 | 66 | 1015.7 |
| 20260502034602 | 5 | 15 | 1.6 | 4.8 | 0.00 | 0.00 | 0.00 | 66 | 1015.7 |
| 20260502034502 | 5 | 15 | 1.6 | 4.8 | 0.00 | 0.00 | 0.00 | 66 | 1015.7 |
| 20260502034402 | 5 | 13 | 1.6 | 4.8 | 0.00 | 0.00 | 0.00 | 65 | 1015.6 |
| 20260502034302 | 5 | 8 | 1.6 | 4.8 | 0.00 | 0.00 | 0.00 | 67 | 1015.6 |
| 20260502034202 | 5 | 5 | 1.6 | 3.2 | 0.00 | 0.00 | 0.00 | 66 | 1015.6 |
| 20260502034102 | 5 | 6 | 1.6 | 3.2 | 0.00 | 0.00 | 0.00 | 66 | 1015.6 |
| 20260502034002 | 5 | 356 | 1.6 | 6.4 | 0.00 | 0.00 | 0.00 | 67 | 1015.6 |
| 20260502033902 | 5 | 357 | 1.6 | 6.4 | 0.00 | 0.00 | 0.00 | 66 | 1015.6 |
| 20260502033802 | 5 | 358 | 1.6 | 6.4 | 0.00 | 0.00 | 0.00 | 66 | 1015.6 |
| 20260502033702 | 5 | 356 | 1.6 | 6.4 | 0.00 | 0.00 | 0.00 | 67 | 1015.6 |
| 20260502033602 | 5 | 356 | 1.6 | 6.4 | 0.00 | 0.00 | 0.00 | 67 | 1015.6 |
| 20260502033502 | 5 | 356 | 1.6 | 6.4 | 0.00 | 0.00 | 0.00 | 66 | 1015.5 |
| 20260502033402 | 5 | 354 | 1.6 | 6.4 | 0.00 | 0.00 | 0.00 | 66 | 1015.5 |
| 20260502033323 | 5 | 352 | 1.6 | 6.4 | 0.00 | 0.00 | 0.00 | 66 | 1015.6 |
| 20260502033202 | 5 | 353 | 1.6 | 6.4 | 0.00 | 0.00 | 0.00 | 67 | 1015.6 |
| 20260502033102 | 5 | 353 | 1.6 | 6.4 | 0.00 | 0.00 | 0.00 | 67 | 1015.6 |
| 20260502033002 | 5 | 357 | 1.6 | 6.4 | 0.00 | 0.00 | 0.00 | 66 | 1015.6 |
| 20260502032903 | 5 | 355 | 1.6 | 6.4 | 0.00 | 0.00 | 0.00 | 67 | 1015.6 |
| 20260502032823 | 5 | 355 | 1.6 | 6.4 | 0.00 | 0.00 | 0.00 | 68 | 1015.6 |
| 20260502032702 | 5 | 355 | 1.6 | 6.4 | 0.00 | 0.00 | 0.00 | 68 | 1015.6 |
| 20260502032602 | 5 | 355 | 1.6 | 6.4 | 0.00 | 0.00 | 0.00 | 68 | 1015.6 |
| 20260502032502 | 5 | 355 | 1.6 | 6.4 | 0.00 | 0.00 | 0.00 | 68 | 1015.6 |
| 20260502032423 | 5 | 356 | 1.6 | 6.4 | 0.00 | 0.00 | 0.00 | 68 | 1015.6 |
| 20260502032305 | 5 | 359 | 1.6 | 6.4 | 0.00 | 0.00 | 0.00 | 69 | 1015.6 |
| 20260502032223 | 5 | 359 | 1.6 | 6.4 | 0.00 | 0.00 | 0.00 | 69 | 1015.6 |
| 20260502032102 | 5 | 360 | 0.0 | 6.4 | 0.00 | 0.00 | 0.00 | 69 | 1015.5 |
| 20260502032002 | 5 | 353 | 0.0 | 4.8 | 0.00 | 0.00 | 0.00 | 71 | 1015.5 |
| 20260502031902 | 5 | 351 | 0.0 | 3.2 | 0.00 | 0.00 | 0.00 | 71 | 1015.5 |
| 20260502031823 | 5 | 1 | 0.0 | 3.2 | 0.00 | 0.00 | 0.00 | 71 | 1015.5 |
| 20260502031702 | 5 | 339 | 0.0 | 1.6 | 0.00 | 0.00 | 0.00 | 73 | 1015.5 |
| 20260502031602 | 5 | 339 | 0.0 | 1.6 | 0.00 | 0.00 | 0.00 | 74 | 1015.5 |
| 20260502031502 | 5 | 339 | 0.0 | 1.6 | 0.00 | 0.00 | 0.00 | 72 | 1015.5 |
| 20260502031402 | 5 | 339 | 0.0 | 1.6 | 0.00 | 0.00 | 0.00 | 73 | 1015.5 |
| 20260502031302 | 5 | 339 | 0.0 | 1.6 | 0.00 | 0.00 | 0.00 | 74 | 1015.4 |
| 20260502031202 | 5 | 339 | 0.0 | 1.6 | 0.00 | 0.00 | 0.00 | 74 | 1015.4 |
| 20260502031102 | 5 | 339 | 0.0 | 1.6 | 0.00 | 0.00 | 0.00 | 74 | 1015.4 |
| 20260502031002 | 5 | 339 | 0.0 | 1.6 | 0.00 | 0.00 | 0.00 | 74 | 1015.4 |
| 20260502030902 | 5 | 339 | 0.0 | 1.6 | 0.00 | 0.00 | 0.00 | 73 | 1015.4 |
| 20260502030802 | 5 | 339 | 0.0 | 1.6 | 0.00 | 0.00 | 0.00 | 76 | 1015.4 |
| 20260502030702 | 5 | 0 | 0.0 | 0.0 | 0.00 | 0.00 | 0.00 | 76 | 1015.4 |
| 20260502030602 | 5 | 0 | 0.0 | 0.0 | 0.00 | 0.00 | 0.00 | 76 | 1015.4 |
| 20260502030502 | 5 | 0 | 0.0 | 0.0 | 0.00 | 0.00 | 0.00 | 76 | 1015.4 |
| 20260502030402 | 5 | 0 | 0.0 | 0.0 | 0.00 | 0.00 | 0.00 | 75 | 1015.4 |
| 20260502030302 | 5 | 0 | 0.0 | 0.0 | 0.00 | 0.00 | 0.00 | 74 | 1015.4 |
| 20260502030202 | 5 | 0 | 0.0 | 0.0 | 0.00 | 0.00 | 0.00 | 72 | 1015.4 |
| 20260502030002 | 5 | 0 | 0.0 | 0.0 | 0.00 | 0.00 | 0.00 | 72 | 1015.4 |
| 20260502025902 | 5 | 0 | 0.0 | 0.0 | 0.00 | 0.00 | 0.00 | 71 | 1015.4 |
| 20260502025802 | 5 | 0 | 0.0 | 0.0 | 0.00 | 0.00 | 0.00 | 70 | 1015.4 |
| 20260502025702 | 5 | 0 | 0.0 | 0.0 | 0.00 | 0.00 | 0.00 | 70 | 1015.4 |
| 20260502025602 | 5 | 0 | 0.0 | 0.0 | 0.00 | 0.00 | 0.00 | 70 | 1015.4 |
| 20260502025502 | 5 | 0 | 0.0 | 0.0 | 0.00 | 0.00 | 0.00 | 71 | 1015.4 |
| 20260502025402 | 5 | 0 | 0.0 | 0.0 | 0.00 | 0.00 | 0.00 | 71 | 1015.4 |
| 20260502025306 | 5 | 0 | 0.0 | 0.0 | 0.00 | 0.00 | 0.00 | 71 | 1015.4 |
| 20260502025223 | 5 | 0 | 0.0 | 0.0 | 0.00 | 0.00 | 0.00 | 71 | 1015.4 |
| 20260502025102 | 5 | 0 | 0.0 | 0.0 | 0.00 | 0.00 | 0.00 | 71 | 1015.4 |
| 20260502025002 | 5 | 0 | 0.0 | 0.0 | 0.00 | 0.00 | 0.00 | 70 | 1015.4 |
| 20260502024903 | 5 | 0 | 0.0 | 0.0 | 0.00 | 0.00 | 0.00 | 70 | 1015.4 |
| 20260502024802 | 5 | 0 | 0.0 | 0.0 | 0.00 | 0.00 | 0.00 | 68 | 1015.4 |
| 20260502024702 | 5 | 0 | 0.0 | 0.0 | 0.00 | 0.00 | 0.00 | 68 | 1015.4 |
| 20260502024602 | 5 | 0 | 0.0 | 0.0 | 0.00 | 0.00 | 0.00 | 68 | 1015.4 |
| 20260502024502 | 5 | 0 | 0.0 | 0.0 | 0.00 | 0.00 | 0.00 | 68 | 1015.4 |
| 20260502024423 | 5 | 0 | 0.0 | 0.0 | 0.00 | 0.00 | 0.00 | 68 | 1015.4 |
| 20260502024302 | 5 | 0 | 0.0 | 0.0 | 0.00 | 0.00 | 0.00 | 66 | 1015.4 |
| 20260502024202 | 5 | 0 | 0.0 | 0.0 | 0.00 | 0.00 | 0.00 | 67 | 1015.4 |
| 20260502024123 | 5 | 0 | 0.0 | 0.0 | 0.00 | 0.00 | 0.00 | 67 | 1015.4 |
| 20260502024024 | 5 | 0 | 0.0 | 0.0 | 0.00 | 0.00 | 0.00 | 68 | 1015.4 |
| 20260502023902 | 5 | 0 | 0.0 | 0.0 | 0.00 | 0.00 | 0.00 | 68 | 1015.4 |
| 20260502023802 | 5 | 0 | 0.0 | 0.0 | 0.00 | 0.00 | 0.00 | 67 | 1015.4 |
| 20260502023723 | 5 | 0 | 0.0 | 0.0 | 0.00 | 0.00 | 0.00 | 67 | 1015.4 |
| 20260502023602 | 5 | 339 | 0.0 | 1.6 | 0.00 | 0.00 | 0.00 | 67 | 1015.4 |
| 20260502023502 | 5 | 339 | 0.0 | 1.6 | 0.00 | 0.00 | 0.00 | 67 | 1015.4 |
| 20260502023402 | 5 | 339 | 0.0 | 1.6 | 0.00 | 0.00 | 0.00 | 67 | 1015.4 |
| 20260502023302 | 5 | 339 | 0.0 | 1.6 | 0.00 | 0.00 | 0.00 | 66 | 1015.4 |
| 20260502023202 | 5 | 339 | 0.0 | 1.6 | 0.00 | 0.00 | 0.00 | 66 | 1015.4 |
| 20260502023102 | 5 | 339 | 0.0 | 1.6 | 0.00 | 0.00 | 0.00 | 66 | 1015.4 |
| 20260502023002 | 5 | 339 | 0.0 | 1.6 | 0.00 | 0.00 | 0.00 | 66 | 1015.4 |
| 20260502022902 | 5 | 339 | 0.0 | 1.6 | 0.00 | 0.00 | 0.00 | 66 | 1015.4 |
| 20260502022802 | 5 | 339 | 0.0 | 1.6 | 0.00 | 0.00 | 0.00 | 66 | 1015.4 |
| 20260502022702 | 5 | 339 | 0.0 | 1.6 | 0.00 | 0.00 | 0.00 | 66 | 1015.4 |
| 20260502022602 | 5 | 339 | 0.0 | 1.6 | 0.00 | 0.00 | 0.00 | 66 | 1015.4 |
| 20260502022523 | 5 | 339 | 0.0 | 1.6 | 0.00 | 0.00 | 0.00 | 66 | 1015.4 |
| 20260502022402 | 5 | 339 | 0.0 | 1.6 | 0.00 | 0.00 | 0.00 | 66 | 1015.4 |
| 20260502022306 | 5 | 0 | 0.0 | 0.0 | 0.00 | 0.00 | 0.00 | 66 | 1015.4 |
| 20260502022202 | 5 | 0 | 0.0 | 0.0 | 0.00 | 0.00 | 0.00 | 65 | 1015.4 |
| 20260502022102 | 5 | 0 | 0.0 | 0.0 | 0.00 | 0.00 | 0.00 | 66 | 1015.4 |
| 20260502022002 | 5 | 0 | 0.0 | 0.0 | 0.00 | 0.00 | 0.00 | 66 | 1015.4 |
| 20260502021902 | 5 | 0 | 0.0 | 0.0 | 0.00 | 0.00 | 0.00 | 67 | 1015.4 |
| 20260502021802 | 5 | 0 | 0.0 | 0.0 | 0.00 | 0.00 | 0.00 | 67 | 1015.4 |
| 20260502021702 | 5 | 0 | 0.0 | 0.0 | 0.00 | 0.00 | 0.00 | 66 | 1015.4 |
| 20260502021602 | 5 | 0 | 0.0 | 0.0 | 0.00 | 0.00 | 0.00 | 66 | 1015.4 |
| 20260502021523 | 5 | 0 | 0.0 | 0.0 | 0.00 | 0.00 | 0.00 | 67 | 1015.4 |
| 20260502021402 | 5 | 340 | 0.0 | 1.6 | 0.00 | 0.00 | 0.00 | 67 | 1015.3 |
| 20260502021302 | 5 | 339 | 0.0 | 1.6 | 0.00 | 0.00 | 0.00 | 66 | 1015.3 |
| 20260502021202 | 5 | 339 | 0.0 | 1.6 | 0.00 | 0.00 | 0.00 | 66 | 1015.3 |
| 20260502021102 | 5 | 339 | 0.0 | 1.6 | 0.00 | 0.00 | 0.00 | 66 | 1015.3 |
| 20260502021002 | 5 | 339 | 0.0 | 1.6 | 0.00 | 0.00 | 0.00 | 66 | 1015.3 |
| 20260502020923 | 5 | 339 | 0.0 | 1.6 | 0.00 | 0.00 | 0.00 | 66 | 1015.3 |
| 20260502020823 | 5 | 339 | 0.0 | 1.6 | 0.00 | 0.00 | 0.00 | 66 | 1015.3 |
| 20260502020702 | 5 | 339 | 0.0 | 1.6 | 0.00 | 0.00 | 0.00 | 65 | 1015.3 |
| 20260502020602 | 5 | 339 | 0.0 | 1.6 | 0.00 | 0.00 | 0.00 | 65 | 1015.3 |
| 20260502020502 | 5 | 339 | 0.0 | 1.6 | 0.00 | 0.00 | 0.00 | 65 | 1015.3 |
| 20260502020402 | 5 | 339 | 0.0 | 1.6 | 0.00 | 0.00 | 0.00 | 66 | 1015.3 |
| 20260502020302 | 5 | 339 | 0.0 | 1.6 | 0.00 | 0.00 | 0.00 | 66 | 1015.3 |
| 20260502020202 | 5 | 339 | 0.0 | 3.2 | 0.00 | 0.00 | 0.00 | 66 | 1015.3 |
| 20260502020002 | 5 | 339 | 0.0 | 3.2 | 0.00 | 0.00 | 0.00 | 66 | 1015.3 |
| 20260502015902 | 5 | 339 | 0.0 | 3.2 | 0.00 | 0.00 | 0.00 | 67 | 1015.3 |
| 20260502015802 | 5 | 338 | 0.0 | 3.2 | 0.00 | 0.00 | 0.00 | 65 | 1015.3 |
| 20260502015702 | 5 | 337 | 0.0 | 3.2 | 0.00 | 0.00 | 0.00 | 66 | 1015.3 |
| 20260502015602 | 5 | 343 | 0.0 | 3.2 | 0.00 | 0.00 | 0.00 | 66 | 1015.3 |
| 20260502015503 | 5 | 344 | 1.6 | 3.2 | 0.00 | 0.00 | 0.00 | 65 | 1015.2 |
| 20260502015402 | 5 | 343 | 1.6 | 3.2 | 0.00 | 0.00 | 0.00 | 65 | 1015.2 |
| 20260502015305 | 5 | 343 | 1.6 | 3.2 | 0.00 | 0.00 | 0.00 | 65 | 1015.2 |
| 20260502015202 | 5 | 344 | 1.6 | 3.2 | 0.00 | 0.00 | 0.00 | 66 | 1015.2 |
| 20260502015102 | 5 | 344 | 1.6 | 3.2 | 0.00 | 0.00 | 0.00 | 65 | 1015.2 |
| 20260502015002 | 5 | 347 | 1.6 | 3.2 | 0.00 | 0.00 | 0.00 | 65 | 1015.2 |
| 20260502014902 | 5 | 345 | 1.6 | 4.8 | 0.00 | 0.00 | 0.00 | 65 | 1015.2 |
| 20260502014823 | 5 | 344 | 1.6 | 4.8 | 0.00 | 0.00 | 0.00 | 65 | 1015.2 |
| 20260502014702 | 5 | 345 | 1.6 | 4.8 | 0.00 | 0.00 | 0.00 | 65 | 1015.2 |
| 20260502014623 | 5 | 346 | 1.6 | 4.8 | 0.00 | 0.00 | 0.00 | 65 | 1015.2 |
| 20260502014502 | 5 | 345 | 1.6 | 4.8 | 0.00 | 0.00 | 0.00 | 64 | 1015.2 |
| 20260502014402 | 5 | 345 | 1.6 | 4.8 | 0.00 | 0.00 | 0.00 | 64 | 1015.2 |
| 20260502014323 | 5 | 345 | 1.6 | 4.8 | 0.00 | 0.00 | 0.00 | 64 | 1015.2 |
| 20260502014202 | 6 | 346 | 0.0 | 4.8 | 0.00 | 0.00 | 0.00 | 65 | 1015.1 |
| 20260502014102 | 5 | 346 | 0.0 | 4.8 | 0.00 | 0.00 | 0.00 | 65 | 1015.1 |
| 20260502014002 | 6 | 343 | 0.0 | 4.8 | 0.00 | 0.00 | 0.00 | 65 | 1015.1 |
| 20260502013902 | 6 | 346 | 0.0 | 3.2 | 0.00 | 0.00 | 0.00 | 64 | 1015.2 |
| 20260502013802 | 6 | 345 | 0.0 | 3.2 | 0.00 | 0.00 | 0.00 | 65 | 1015.2 |
| 20260502013723 | 6 | 339 | 0.0 | 3.2 | 0.00 | 0.00 | 0.00 | 64 | 1015.1 |
| 20260502013602 | 6 | 342 | 0.0 | 4.8 | 0.00 | 0.00 | 0.00 | 64 | 1015.1 |
| 20260502013502 | 6 | 338 | 1.6 | 4.8 | 0.00 | 0.00 | 0.00 | 65 | 1015.1 |
| 20260502013402 | 6 | 339 | 1.6 | 4.8 | 0.00 | 0.00 | 0.00 | 65 | 1015.1 |
| 20260502013323 | 6 | 339 | 1.6 | 4.8 | 0.00 | 0.00 | 0.00 | 65 | 1015.1 |
| 20260502013202 | 6 | 345 | 1.6 | 6.4 | 0.00 | 0.00 | 0.00 | 64 | 1015.1 |
| 20260502013102 | 6 | 345 | 1.6 | 6.4 | 0.00 | 0.00 | 0.00 | 64 | 1015.1 |
| 20260502013023 | 6 | 346 | 1.6 | 6.4 | 0.00 | 0.00 | 0.00 | 64 | 1015.0 |
| 20260502012902 | 6 | 346 | 1.6 | 6.4 | 0.00 | 0.00 | 0.00 | 64 | 1015.1 |
| 20260502012802 | 6 | 347 | 1.6 | 6.4 | 0.00 | 0.00 | 0.00 | 64 | 1015.1 |
| 20260502012702 | 6 | 350 | 1.6 | 6.4 | 0.00 | 0.00 | 0.00 | 63 | 1015.1 |
| 20260502012623 | 6 | 351 | 1.6 | 6.4 | 0.00 | 0.00 | 0.00 | 63 | 1015.1 |
| 20260502012502 | 6 | 353 | 1.6 | 6.4 | 0.00 | 0.00 | 0.00 | 63 | 1015.0 |
| 20260502012402 | 6 | 352 | 1.6 | 6.4 | 0.00 | 0.00 | 0.00 | 63 | 1015.0 |
| 20260502012306 | 6 | 352 | 1.6 | 6.4 | 0.00 | 0.00 | 0.00 | 63 | 1015.0 |
| 20260502012202 | 6 | 349 | 1.6 | 6.4 | 0.00 | 0.00 | 0.00 | 63 | 1015.0 |
| 20260502012102 | 6 | 349 | 1.6 | 6.4 | 0.00 | 0.00 | 0.00 | 64 | 1015.0 |
| 20260502012024 | 6 | 349 | 1.6 | 6.4 | 0.00 | 0.00 | 0.00 | 64 | 1015.0 |
| 20260502011902 | 6 | 349 | 1.6 | 6.4 | 0.00 | 0.00 | 0.00 | 64 | 1015.0 |
| 20260502011802 | 6 | 349 | 1.6 | 6.4 | 0.00 | 0.00 | 0.00 | 63 | 1015.0 |
| 20260502011723 | 6 | 350 | 1.6 | 6.4 | 0.00 | 0.00 | 0.00 | 63 | 1014.9 |
| 20260502011602 | 6 | 346 | 1.6 | 6.4 | 0.00 | 0.00 | 0.00 | 64 | 1014.9 |
| 20260502011502 | 6 | 347 | 0.0 | 6.4 | 0.00 | 0.00 | 0.00 | 63 | 1014.9 |
| 20260502011402 | 6 | 348 | 0.0 | 6.4 | 0.00 | 0.00 | 0.00 | 64 | 1014.9 |
| 20260502011302 | 6 | 348 | 0.0 | 6.4 | 0.00 | 0.00 | 0.00 | 64 | 1014.9 |
| 20260502011202 | 6 | 352 | 0.0 | 3.2 | 0.00 | 0.00 | 0.00 | 65 | 1014.9 |
| 20260502011102 | 6 | 352 | 0.0 | 1.6 | 0.00 | 0.00 | 0.00 | 65 | 1014.9 |
| 20260502011002 | 6 | 352 | 0.0 | 1.6 | 0.00 | 0.00 | 0.00 | 65 | 1014.9 |
| 20260502010902 | 6 | 350 | 0.0 | 1.6 | 0.00 | 0.00 | 0.00 | 65 | 1014.9 |
| 20260502010802 | 6 | 350 | 0.0 | 1.6 | 0.00 | 0.00 | 0.00 | 65 | 1014.9 |
| 20260502010702 | 6 | 350 | 0.0 | 1.6 | 0.00 | 0.00 | 0.00 | 65 | 1014.9 |
| 20260502010602 | 6 | 349 | 0.0 | 1.6 | 0.00 | 0.00 | 0.00 | 66 | 1014.8 |
| 20260502010502 | 6 | 349 | 0.0 | 1.6 | 0.00 | 0.00 | 0.00 | 65 | 1014.8 |
| 20260502010423 | 6 | 348 | 0.0 | 1.6 | 0.00 | 0.00 | 0.00 | 65 | 1014.8 |
| 20260502010302 | 6 | 347 | 0.0 | 1.6 | 0.00 | 0.00 | 0.00 | 65 | 1014.8 |
| 20260502010202 | 6 | 347 | 0.0 | 1.6 | 0.00 | 0.00 | 0.00 | 65 | 1014.8 |
| 20260502010123 | 6 | 347 | 0.0 | 1.6 | 0.00 | 0.00 | 0.00 | 65 | 1014.8 |
| 20260502010002 | 6 | 347 | 0.0 | 3.2 | 0.00 | 0.00 | 0.00 | 64 | 1014.8 |
| 20260502005902 | 6 | 351 | 0.0 | 4.8 | 0.00 | 0.00 | 0.00 | 65 | 1014.8 |
| 20260502005802 | 6 | 352 | 0.0 | 4.8 | 0.00 | 0.00 | 0.00 | 65 | 1014.8 |
| 20260502005702 | 6 | 351 | 1.6 | 4.8 | 0.00 | 0.00 | 0.00 | 64 | 1014.8 |
| 20260502005602 | 6 | 351 | 1.6 | 4.8 | 0.00 | 0.00 | 0.00 | 66 | 1014.8 |
| 20260502005502 | 6 | 351 | 1.6 | 4.8 | 0.00 | 0.00 | 0.00 | 65 | 1014.8 |
| 20260502005402 | 6 | 351 | 1.6 | 4.8 | 0.00 | 0.00 | 0.00 | 65 | 1014.8 |
| 20260502005305 | 6 | 351 | 1.6 | 4.8 | 0.00 | 0.00 | 0.00 | 64 | 1014.8 |
| 20260502005202 | 6 | 351 | 1.6 | 4.8 | 0.00 | 0.00 | 0.00 | 64 | 1014.8 |
| 20260502005102 | 6 | 350 | 1.6 | 4.8 | 0.00 | 0.00 | 0.00 | 64 | 1014.8 |
| 20260502005002 | 6 | 351 | 1.6 | 4.8 | 0.00 | 0.00 | 0.00 | 63 | 1014.7 |
| 20260502004902 | 6 | 350 | 0.0 | 3.2 | 0.00 | 0.00 | 0.00 | 64 | 1014.7 |
| 20260502004802 | 6 | 349 | 0.0 | 1.6 | 0.00 | 0.00 | 0.00 | 65 | 1014.7 |
| 20260502004702 | 6 | 349 | 0.0 | 1.6 | 0.00 | 0.00 | 0.00 | 65 | 1014.7 |
| 20260502004602 | 6 | 346 | 0.0 | 1.6 | 0.00 | 0.00 | 0.00 | 64 | 1014.7 |
| 20260502004502 | 6 | 344 | 0.0 | 1.6 | 0.00 | 0.00 | 0.00 | 64 | 1014.7 |
| 20260502004423 | 6 | 343 | 0.0 | 1.6 | 0.00 | 0.00 | 0.00 | 64 | 1014.7 |
| 20260502004302 | 6 | 337 | 0.0 | 1.6 | 0.00 | 0.00 | 0.00 | 64 | 1014.7 |
| 20260502004202 | 6 | 340 | 0.0 | 1.6 | 0.00 | 0.00 | 0.00 | 65 | 1014.7 |
| 20260502004102 | 6 | 339 | 0.0 | 1.6 | 0.00 | 0.00 | 0.00 | 65 | 1014.7 |
| 20260502004002 | 6 | 339 | 0.0 | 1.6 | 0.00 | 0.00 | 0.00 | 64 | 1014.7 |
| 20260502003902 | 6 | 342 | 0.0 | 1.6 | 0.00 | 0.00 | 0.00 | 64 | 1014.7 |
| 20260502003803 | 6 | 344 | 0.0 | 1.6 | 0.00 | 0.00 | 0.00 | 65 | 1014.7 |
| 20260502003723 | 6 | 345 | 0.0 | 1.6 | 0.00 | 0.00 | 0.00 | 65 | 1014.7 |
| 20260502003602 | 6 | 348 | 0.0 | 1.6 | 0.00 | 0.00 | 0.00 | 65 | 1014.7 |
| 20260502003502 | 6 | 352 | 0.0 | 1.6 | 0.00 | 0.00 | 0.00 | 64 | 1014.7 |
| 20260502003402 | 6 | 352 | 0.0 | 1.6 | 0.00 | 0.00 | 0.00 | 64 | 1014.7 |
| 20260502003302 | 6 | 352 | 0.0 | 1.6 | 0.00 | 0.00 | 0.00 | 64 | 1014.6 |
| 20260502003202 | 6 | 352 | 0.0 | 1.6 | 0.00 | 0.00 | 0.00 | 64 | 1014.6 |
| 20260502003123 | 6 | 352 | 0.0 | 1.6 | 0.00 | 0.00 | 0.00 | 64 | 1014.6 |
| 20260502003002 | 6 | 352 | 0.0 | 1.6 | 0.00 | 0.00 | 0.00 | 64 | 1014.6 |
| 20260502002902 | 6 | 352 | 0.0 | 1.6 | 0.00 | 0.00 | 0.00 | 64 | 1014.6 |
| 20260502002802 | 6 | 352 | 0.0 | 1.6 | 0.00 | 0.00 | 0.00 | 64 | 1014.6 |
| 20260502002702 | 6 | 352 | 0.0 | 1.6 | 0.00 | 0.00 | 0.00 | 64 | 1014.7 |
| 20260502002623 | 6 | 352 | 0.0 | 1.6 | 0.00 | 0.00 | 0.00 | 64 | 1014.7 |
| 20260502002502 | 6 | 352 | 0.0 | 1.6 | 0.00 | 0.00 | 0.00 | 64 | 1014.7 |
| 20260502002402 | 6 | 352 | 0.0 | 1.6 | 0.00 | 0.00 | 0.00 | 65 | 1014.7 |
| 20260502002305 | 6 | 352 | 0.0 | 1.6 | 0.00 | 0.00 | 0.00 | 65 | 1014.7 |
| 20260502002202 | 6 | 352 | 0.0 | 1.6 | 0.00 | 0.00 | 0.00 | 65 | 1014.6 |
| 20260502002102 | 6 | 352 | 0.0 | 1.6 | 0.00 | 0.00 | 0.00 | 65 | 1014.6 |
| 20260502002002 | 6 | 351 | 0.0 | 3.2 | 0.00 | 0.00 | 0.00 | 65 | 1014.7 |
| 20260502001923 | 6 | 349 | 0.0 | 3.2 | 0.00 | 0.00 | 0.00 | 64 | 1014.7 |
| 20260502001802 | 6 | 350 | 0.0 | 3.2 | 0.00 | 0.00 | 0.00 | 64 | 1014.6 |
| 20260502001702 | 6 | 351 | 0.0 | 3.2 | 0.00 | 0.00 | 0.00 | 64 | 1014.6 |
| 20260502001623 | 6 | 351 | 0.0 | 3.2 | 0.00 | 0.00 | 0.00 | 64 | 1014.6 |
| 20260502001502 | 6 | 351 | 0.0 | 3.2 | 0.00 | 0.00 | 0.00 | 64 | 1014.6 |
| 20260502001402 | 6 | 351 | 0.0 | 3.2 | 0.00 | 0.00 | 0.00 | 64 | 1014.6 |
| 20260502001302 | 6 | 351 | 0.0 | 3.2 | 0.00 | 0.00 | 0.00 | 64 | 1014.6 |
| 20260502001202 | 6 | 351 | 0.0 | 3.2 | 0.00 | 0.00 | 0.00 | 64 | 1014.6 |
| 20260502001102 | 6 | 351 | 0.0 | 3.2 | 0.00 | 0.00 | 0.00 | 63 | 1014.6 |
| 20260502001002 | 6 | 351 | 0.0 | 3.2 | 0.00 | 0.00 | 0.00 | 64 | 1014.6 |
| 20260502000902 | 6 | 359 | 0.0 | 3.2 | 0.00 | 0.00 | 0.00 | 64 | 1014.6 |
| 20260502000802 | 6 | 357 | 0.0 | 4.8 | 0.00 | 0.00 | 0.00 | 64 | 1014.6 |
| 20260502000702 | 6 | 355 | 0.0 | 4.8 | 0.00 | 0.00 | 0.00 | 64 | 1014.6 |
| 20260502000623 | 6 | 354 | 0.0 | 4.8 | 0.00 | 0.00 | 0.00 | 64 | 1014.6 |
| 20260502000502 | 6 | 355 | 0.0 | 4.8 | 0.00 | 0.00 | 0.00 | 65 | 1014.6 |
| 20260502000424 | 6 | 355 | 0.0 | 4.8 | 0.00 | 0.00 | 0.00 | 65 | 1014.5 |
| 20260502000325 | 6 | 355 | 0.0 | 4.8 | 0.00 | 0.00 | 0.00 | 64 | 1014.5 |
| 20260502000225 | 6 | 355 | 0.0 | 4.8 | 0.00 | 0.00 | 0.00 | 64 | 1014.5 |
| 20260502000023 | 6 | 355 | 0.0 | 4.8 | 0.00 | 0.00 | 0.00 | 63 | 1014.5 |
| 20260501235902 | 6 | 355 | 0.0 | 4.8 | 0.00 | 0.00 | 0.00 | 62 | 1014.5 |
| 20260501235802 | 6 | 356 | 0.0 | 4.8 | 0.00 | 0.00 | 0.00 | 62 | 1014.5 |
| 20260501235702 | 6 | 352 | 0.0 | 4.8 | 0.00 | 0.00 | 0.00 | 63 | 1014.5 |
| 20260501235602 | 6 | 353 | 0.0 | 3.2 | 0.00 | 0.00 | 0.00 | 63 | 1014.5 |
| 20260501235502 | 6 | 352 | 0.0 | 3.2 | 0.00 | 0.00 | 0.00 | 63 | 1014.5 |
| 20260501235402 | 6 | 347 | 0.0 | 3.2 | 0.00 | 0.00 | 0.00 | 64 | 1014.5 |
| 20260501235305 | 6 | 344 | 0.0 | 3.2 | 0.00 | 0.00 | 0.00 | 64 | 1014.5 |
| 20260501235202 | 6 | 345 | 0.0 | 3.2 | 0.00 | 0.00 | 0.00 | 64 | 1014.5 |
| 20260501235102 | 6 | 347 | 0.0 | 3.2 | 0.00 | 0.00 | 0.00 | 63 | 1014.5 |
| 20260501235002 | 6 | 348 | 1.6 | 3.2 | 0.00 | 0.00 | 0.00 | 63 | 1014.5 |
| 20260501234902 | 6 | 349 | 1.6 | 3.2 | 0.00 | 0.00 | 0.00 | 65 | 1014.4 |
| 20260501234802 | 6 | 351 | 1.6 | 3.2 | 0.00 | 0.00 | 0.00 | 64 | 1014.4 |
| 20260501234702 | 6 | 354 | 1.6 | 3.2 | 0.00 | 0.00 | 0.00 | 63 | 1014.4 |
| 20260501234602 | 6 | 354 | 1.6 | 3.2 | 0.00 | 0.00 | 0.00 | 64 | 1014.4 |
| 20260501234502 | 6 | 354 | 1.6 | 3.2 | 0.00 | 0.00 | 0.00 | 63 | 1014.4 |
| 20260501234402 | 6 | 354 | 1.6 | 4.8 | 0.00 | 0.00 | 0.00 | 63 | 1014.4 |
| 20260501234302 | 6 | 354 | 1.6 | 4.8 | 0.00 | 0.00 | 0.00 | 63 | 1014.3 |
| 20260501234202 | 6 | 352 | 1.6 | 4.8 | 0.00 | 0.00 | 0.00 | 62 | 1014.3 |
| 20260501234102 | 6 | 350 | 1.6 | 4.8 | 0.00 | 0.00 | 0.00 | 63 | 1014.4 |
| 20260501234002 | 6 | 352 | 1.6 | 6.4 | 0.00 | 0.00 | 0.00 | 63 | 1014.4 |
| 20260501233923 | 6 | 351 | 1.6 | 6.4 | 0.00 | 0.00 | 0.00 | 63 | 1014.3 |
| 20260501233802 | 6 | 351 | 1.6 | 6.4 | 0.00 | 0.00 | 0.00 | 62 | 1014.3 |
| 20260501233702 | 6 | 351 | 1.6 | 6.4 | 0.00 | 0.00 | 0.00 | 62 | 1014.3 |
| 20260501233602 | 6 | 351 | 1.6 | 6.4 | 0.00 | 0.00 | 0.00 | 62 | 1014.3 |
| 20260501233502 | 6 | 352 | 1.6 | 6.4 | 0.00 | 0.00 | 0.00 | 63 | 1014.3 |
| 20260501233402 | 6 | 351 | 1.6 | 6.4 | 0.00 | 0.00 | 0.00 | 62 | 1014.3 |
| 20260501233323 | 6 | 351 | 1.6 | 6.4 | 0.00 | 0.00 | 0.00 | 62 | 1014.3 |
| 20260501233202 | 6 | 355 | 1.6 | 6.4 | 0.00 | 0.00 | 0.00 | 63 | 1014.2 |
| 20260501233102 | 6 | 359 | 1.6 | 6.4 | 0.00 | 0.00 | 0.00 | 62 | 1014.3 |
| 20260501233002 | 6 | 357 | 1.6 | 6.4 | 0.00 | 0.00 | 0.00 | 63 | 1014.3 |
| 20260501232902 | 6 | 356 | 1.6 | 6.4 | 0.00 | 0.00 | 0.00 | 62 | 1014.3 |
| 20260501232802 | 6 | 350 | 1.6 | 6.4 | 0.00 | 0.00 | 0.00 | 62 | 1014.3 |
| 20260501232702 | 7 | 343 | 1.6 | 4.8 | 0.00 | 0.00 | 0.00 | 63 | 1014.3 |
| 20260501232602 | 6 | 357 | 1.6 | 9.7 | 0.00 | 0.00 | 0.00 | 63 | 1014.2 |
| 20260501232502 | 6 | 357 | 1.6 | 9.7 | 0.00 | 0.00 | 0.00 | 63 | 1014.2 |
| 20260501232402 | 6 | 354 | 1.6 | 9.7 | 0.00 | 0.00 | 0.00 | 63 | 1014.2 |
| 20260501232305 | 7 | 353 | 1.6 | 9.7 | 0.00 | 0.00 | 0.00 | 63 | 1014.2 |
| 20260501232202 | 6 | 353 | 1.6 | 9.7 | 0.00 | 0.00 | 0.00 | 62 | 1014.2 |
| 20260501232102 | 7 | 355 | 1.6 | 9.7 | 0.00 | 0.00 | 0.00 | 63 | 1014.2 |
| 20260501232002 | 7 | 355 | 1.6 | 9.7 | 0.00 | 0.00 | 0.00 | 62 | 1014.3 |
| 20260501231902 | 7 | 355 | 1.6 | 9.7 | 0.00 | 0.00 | 0.00 | 62 | 1014.3 |
| 20260501231823 | 7 | 357 | 1.6 | 9.7 | 0.00 | 0.00 | 0.00 | 62 | 1014.2 |
| 20260501231702 | 7 | 1 | 1.6 | 9.7 | 0.00 | 0.00 | 0.00 | 62 | 1014.2 |
| 20260501231602 | 7 | 351 | 1.6 | 3.2 | 0.00 | 0.00 | 0.00 | 62 | 1014.2 |
| 20260501231502 | 7 | 350 | 1.6 | 3.2 | 0.00 | 0.00 | 0.00 | 61 | 1014.2 |
| 20260501231423 | 7 | 353 | 1.6 | 3.2 | 0.00 | 0.00 | 0.00 | 62 | 1014.2 |
| 20260501231302 | 7 | 355 | 0.0 | 3.2 | 0.00 | 0.00 | 0.00 | 63 | 1014.2 |
| 20260501231202 | 7 | 355 | 0.0 | 3.2 | 0.00 | 0.00 | 0.00 | 63 | 1014.2 |
| 20260501231102 | 7 | 350 | 0.0 | 3.2 | 0.00 | 0.00 | 0.00 | 63 | 1014.2 |
| 20260501231002 | 7 | 350 | 0.0 | 3.2 | 0.00 | 0.00 | 0.00 | 62 | 1014.2 |
| 20260501230902 | 7 | 352 | 0.0 | 3.2 | 0.00 | 0.00 | 0.00 | 63 | 1014.2 |
| 20260501230802 | 7 | 353 | 0.0 | 3.2 | 0.00 | 0.00 | 0.00 | 63 | 1014.2 |
| 20260501230702 | 7 | 350 | 0.0 | 3.2 | 0.00 | 0.00 | 0.00 | 63 | 1014.2 |
| 20260501230602 | 7 | 354 | 1.6 | 3.2 | 0.00 | 0.00 | 0.00 | 63 | 1014.2 |
| 20260501230502 | 7 | 354 | 1.6 | 3.2 | 0.00 | 0.00 | 0.00 | 63 | 1014.2 |
| 20260501230423 | 7 | 354 | 0.0 | 3.2 | 0.00 | 0.00 | 0.00 | 62 | 1014.2 |
| 20260501230302 | 7 | 355 | 0.0 | 3.2 | 0.00 | 0.00 | 0.00 | 64 | 1014.2 |
| 20260501230202 | 7 | 353 | 0.0 | 3.2 | 0.00 | 0.00 | 0.00 | 62 | 1014.2 |
| 20260501230002 | 7 | 344 | 1.6 | 4.8 | 0.00 | 0.00 | 0.00 | 63 | 1014.2 |
| 20260501225902 | 7 | 345 | 1.6 | 4.8 | 0.00 | 0.00 | 0.00 | 63 | 1014.2 |
| 20260501225802 | 7 | 343 | 0.0 | 4.8 | 0.00 | 0.00 | 0.00 | 63 | 1014.2 |
| 20260501225723 | 7 | 345 | 1.6 | 4.8 | 0.00 | 0.00 | 0.00 | 62 | 1014.2 |
| 20260501225623 | 7 | 341 | 1.6 | 4.8 | 0.00 | 0.00 | 0.00 | 62 | 1014.2 |
| 20260501225502 | 7 | 344 | 1.6 | 4.8 | 0.00 | 0.00 | 0.00 | 61 | 1014.2 |
| 20260501225402 | 7 | 343 | 1.6 | 4.8 | 0.00 | 0.00 | 0.00 | 61 | 1014.2 |
| 20260501225305 | 7 | 346 | 1.6 | 6.4 | 0.00 | 0.00 | 0.00 | 62 | 1014.2 |
| 20260501225202 | 7 | 347 | 1.6 | 6.4 | 0.00 | 0.00 | 0.00 | 62 | 1014.2 |
| 20260501225102 | 7 | 349 | 1.6 | 6.4 | 0.00 | 0.00 | 0.00 | 61 | 1014.2 |
| 20260501225002 | 7 | 351 | 1.6 | 6.4 | 0.00 | 0.00 | 0.00 | 63 | 1014.1 |
| 20260501224902 | 7 | 350 | 1.6 | 6.4 | 0.00 | 0.00 | 0.00 | 62 | 1014.1 |
| 20260501224802 | 7 | 350 | 1.6 | 6.4 | 0.00 | 0.00 | 0.00 | 61 | 1014.1 |
| 20260501224702 | 7 | 350 | 1.6 | 6.4 | 0.00 | 0.00 | 0.00 | 62 | 1014.1 |
| 20260501224602 | 7 | 350 | 1.6 | 6.4 | 0.00 | 0.00 | 0.00 | 61 | 1014.1 |
| 20260501224502 | 7 | 353 | 1.6 | 6.4 | 0.00 | 0.00 | 0.00 | 60 | 1014.1 |
| 20260501224423 | 7 | 358 | 1.6 | 8.0 | 0.00 | 0.00 | 0.00 | 60 | 1014.1 |
| 20260501224302 | 7 | 360 | 1.6 | 8.0 | 0.00 | 0.00 | 0.00 | 60 | 1014.1 |
| 20260501224203 | 7 | 4 | 1.6 | 8.0 | 0.00 | 0.00 | 0.00 | 59 | 1014.1 |
| 20260501224102 | 7 | 5 | 1.6 | 8.0 | 0.00 | 0.00 | 0.00 | 60 | 1014.1 |
| 20260501224002 | 7 | 2 | 1.6 | 8.0 | 0.00 | 0.00 | 0.00 | 60 | 1014.1 |
| 20260501223902 | 7 | 359 | 3.2 | 8.0 | 0.00 | 0.00 | 0.00 | 59 | 1014.2 |
| 20260501223802 | 7 | 360 | 3.2 | 8.0 | 0.00 | 0.00 | 0.00 | 60 | 1014.2 |
| 20260501223702 | 7 | 359 | 3.2 | 8.0 | 0.00 | 0.00 | 0.00 | 59 | 1014.2 |
| 20260501223602 | 7 | 360 | 3.2 | 8.0 | 0.00 | 0.00 | 0.00 | 58 | 1014.2 |
| 20260501223523 | 7 | 360 | 1.6 | 8.0 | 0.00 | 0.00 | 0.00 | 59 | 1014.2 |
| 20260501223402 | 7 | 353 | 1.6 | 8.0 | 0.00 | 0.00 | 0.00 | 59 | 1014.2 |
| 20260501223302 | 7 | 352 | 3.2 | 8.0 | 0.00 | 0.00 | 0.00 | 58 | 1014.2 |
| 20260501223202 | 7 | 351 | 1.6 | 8.0 | 0.00 | 0.00 | 0.00 | 58 | 1014.2 |
| 20260501223102 | 7 | 350 | 1.6 | 8.0 | 0.00 | 0.00 | 0.00 | 58 | 1014.2 |
| 20260501223002 | 7 | 351 | 1.6 | 8.0 | 0.00 | 0.00 | 0.00 | 58 | 1014.2 |
| 20260501222923 | 7 | 351 | 1.6 | 8.0 | 0.00 | 0.00 | 0.00 | 58 | 1014.1 |
| 20260501222803 | 7 | 345 | 1.6 | 6.4 | 0.00 | 0.00 | 0.00 | 59 | 1014.2 |
| 20260501222702 | 7 | 345 | 1.6 | 6.4 | 0.00 | 0.00 | 0.00 | 58 | 1014.2 |
| 20260501222602 | 7 | 344 | 1.6 | 6.4 | 0.00 | 0.00 | 0.00 | 57 | 1014.1 |
| 20260501222502 | 7 | 342 | 1.6 | 6.4 | 0.00 | 0.00 | 0.00 | 58 | 1014.1 |
| 20260501222402 | 7 | 340 | 1.6 | 6.4 | 0.00 | 0.00 | 0.00 | 59 | 1014.1 |
| 20260501222305 | 7 | 337 | 1.6 | 4.8 | 0.00 | 0.00 | 0.00 | 60 | 1014.1 |
| 20260501222202 | 7 | 331 | 1.6 | 4.8 | 0.00 | 0.00 | 0.00 | 60 | 1014.1 |
| 20260501222102 | 7 | 323 | 1.6 | 4.8 | 0.00 | 0.00 | 0.00 | 59 | 1014.1 |
| 20260501222002 | 7 | 316 | 1.6 | 4.8 | 0.00 | 0.00 | 0.00 | 60 | 1014.1 |
| 20260501221902 | 7 | 319 | 1.6 | 8.0 | 0.00 | 0.00 | 0.00 | 59 | 1014.0 |
| 20260501221802 | 7 | 324 | 1.6 | 8.0 | 0.00 | 0.00 | 0.00 | 60 | 1014.0 |
| 20260501221702 | 7 | 324 | 1.6 | 8.0 | 0.00 | 0.00 | 0.00 | 59 | 1014.0 |
| 20260501221623 | 7 | 325 | 1.6 | 8.0 | 0.00 | 0.00 | 0.00 | 59 | 1014.0 |
| 20260501221523 | 7 | 327 | 1.6 | 8.0 | 0.00 | 0.00 | 0.00 | 58 | 1014.0 |
| 20260501221402 | 7 | 328 | 1.6 | 8.0 | 0.00 | 0.00 | 0.00 | 59 | 1014.0 |
| 20260501221302 | 7 | 327 | 1.6 | 8.0 | 0.00 | 0.00 | 0.00 | 58 | 1014.0 |
| 20260501221202 | 7 | 331 | 1.6 | 8.0 | 0.00 | 0.00 | 0.00 | 58 | 1014.0 |
| 20260501221102 | 7 | 340 | 1.6 | 8.0 | 0.00 | 0.00 | 0.00 | 59 | 1014.0 |
| 20260501221002 | 7 | 346 | 3.2 | 8.0 | 0.00 | 0.00 | 0.00 | 60 | 1013.9 |
| 20260501220902 | 7 | 346 | 1.6 | 8.0 | 0.00 | 0.00 | 0.00 | 59 | 1013.9 |
| 20260501220802 | 7 | 345 | 3.2 | 8.0 | 0.00 | 0.00 | 0.00 | 58 | 1013.9 |
| 20260501220724 | 7 | 345 | 3.2 | 8.0 | 0.00 | 0.00 | 0.00 | 59 | 1013.9 |
| 20260501220602 | 7 | 345 | 3.2 | 8.0 | 0.00 | 0.00 | 0.00 | 58 | 1014.0 |
| 20260501220523 | 7 | 346 | 3.2 | 8.0 | 0.00 | 0.00 | 0.00 | 60 | 1014.0 |
| 20260501220402 | 7 | 347 | 3.2 | 8.0 | 0.00 | 0.00 | 0.00 | 60 | 1014.0 |
| 20260501220302 | 7 | 348 | 3.2 | 8.0 | 0.00 | 0.00 | 0.00 | 59 | 1013.9 |
| 20260501220123 | 7 | 348 | 3.2 | 8.0 | 0.00 | 0.00 | 0.00 | 59 | 1013.9 |
| 20260501220002 | 7 | 346 | 1.6 | 8.0 | 0.00 | 0.00 | 0.00 | 59 | 1013.9 |
| 20260501215902 | 7 | 343 | 1.6 | 8.0 | 0.00 | 0.00 | 0.00 | 58 | 1013.9 |
| 20260501215802 | 7 | 342 | 1.6 | 6.4 | 0.00 | 0.00 | 0.00 | 60 | 1013.9 |
| 20260501215702 | 7 | 341 | 1.6 | 6.4 | 0.00 | 0.00 | 0.00 | 58 | 1013.9 |
| 20260501215602 | 7 | 339 | 1.6 | 6.4 | 0.00 | 0.00 | 0.00 | 59 | 1013.9 |
| 20260501215502 | 7 | 343 | 1.6 | 6.4 | 0.00 | 0.00 | 0.00 | 60 | 1013.9 |
| 20260501215402 | 7 | 347 | 1.6 | 6.4 | 0.00 | 0.00 | 0.00 | 60 | 1013.9 |
| 20260501215305 | 7 | 347 | 1.6 | 6.4 | 0.00 | 0.00 | 0.00 | 62 | 1013.9 |
| 20260501215202 | 7 | 347 | 1.6 | 6.4 | 0.00 | 0.00 | 0.00 | 61 | 1013.9 |
| 20260501215102 | 7 | 357 | 1.6 | 8.0 | 0.00 | 0.00 | 0.00 | 61 | 1013.9 |
| 20260501215002 | 7 | 354 | 1.6 | 8.0 | 0.00 | 0.00 | 0.00 | 61 | 1013.9 |
| 20260501214923 | 7 | 355 | 3.2 | 8.0 | 0.00 | 0.00 | 0.00 | 60 | 1013.9 |
| 20260501214802 | 7 | 357 | 3.2 | 8.0 | 0.00 | 0.00 | 0.00 | 59 | 1013.9 |
| 20260501214702 | 7 | 356 | 3.2 | 8.0 | 0.00 | 0.00 | 0.00 | 59 | 1013.9 |
| 20260501214602 | 7 | 355 | 3.2 | 8.0 | 0.00 | 0.00 | 0.00 | 59 | 1013.9 |
| 20260501214502 | 7 | 353 | 3.2 | 8.0 | 0.00 | 0.00 | 0.00 | 58 | 1013.9 |
| 20260501214402 | 7 | 353 | 1.6 | 8.0 | 0.00 | 0.00 | 0.00 | 57 | 1013.9 |
| 20260501214302 | 7 | 353 | 1.6 | 8.0 | 0.00 | 0.00 | 0.00 | 57 | 1013.9 |
| 20260501214202 | 7 | 352 | 1.6 | 8.0 | 0.00 | 0.00 | 0.00 | 56 | 1013.9 |
| 20260501214102 | 7 | 344 | 1.6 | 8.0 | 0.00 | 0.00 | 0.00 | 56 | 1013.9 |
| 20260501214002 | 7 | 319 | 1.6 | 11.3 | 0.00 | 0.00 | 0.00 | 57 | 1013.9 |
| 20260501213923 | 7 | 306 | 1.6 | 11.3 | 0.00 | 0.00 | 0.00 | 57 | 1013.9 |
| 20260501213802 | 8 | 272 | 1.6 | 11.3 | 0.00 | 0.00 | 0.00 | 55 | 1013.9 |
| 20260501213723 | 8 | 271 | 1.6 | 11.3 | 0.00 | 0.00 | 0.00 | 56 | 1013.9 |
| 20260501213602 | 8 | 250 | 1.6 | 11.3 | 0.00 | 0.00 | 0.00 | 56 | 1013.8 |
| 20260501213502 | 8 | 239 | 1.6 | 11.3 | 0.00 | 0.00 | 0.00 | 56 | 1013.8 |
| 20260501213402 | 8 | 234 | 1.6 | 11.3 | 0.00 | 0.00 | 0.00 | 58 | 1013.8 |
| 20260501213302 | 8 | 246 | 1.6 | 11.3 | 0.00 | 0.00 | 0.00 | 59 | 1013.8 |
| 20260501213202 | 8 | 273 | 1.6 | 11.3 | 0.00 | 0.00 | 0.00 | 56 | 1013.8 |
| 20260501213102 | 8 | 289 | 1.6 | 11.3 | 0.00 | 0.00 | 0.00 | 57 | 1013.8 |
| 20260501213002 | 8 | 332 | 1.6 | 4.8 | 0.00 | 0.00 | 0.00 | 57 | 1013.8 |
| 20260501212902 | 8 | 333 | 1.6 | 4.8 | 0.00 | 0.00 | 0.00 | 56 | 1013.8 |
| 20260501212802 | 8 | 337 | 1.6 | 4.8 | 0.00 | 0.00 | 0.00 | 58 | 1013.8 |
| 20260501212702 | 8 | 341 | 1.6 | 4.8 | 0.00 | 0.00 | 0.00 | 56 | 1013.7 |
| 20260501212602 | 8 | 345 | 1.6 | 4.8 | 0.00 | 0.00 | 0.00 | 55 | 1013.7 |
| 20260501212502 | 8 | 347 | 1.6 | 4.8 | 0.00 | 0.00 | 0.00 | 57 | 1013.8 |
| 20260501212408 | 8 | 348 | 1.6 | 4.8 | 0.00 | 0.00 | 0.00 | 57 | 1013.8 |
| 20260501212305 | 8 | 351 | 1.6 | 6.4 | 0.00 | 0.00 | 0.00 | 57 | 1013.6 |
| 20260501212203 | 8 | 352 | 1.6 | 6.4 | 0.00 | 0.00 | 0.00 | 56 | 1013.7 |
| 20260501212102 | 8 | 349 | 1.6 | 6.4 | 0.00 | 0.00 | 0.00 | 58 | 1013.7 |
| 20260501212002 | 8 | 351 | 1.6 | 8.0 | 0.00 | 0.00 | 0.00 | 56 | 1013.6 |
| 20260501211902 | 8 | 349 | 1.6 | 8.0 | 0.00 | 0.00 | 0.00 | 55 | 1013.6 |
| 20260501211823 | 8 | 348 | 1.6 | 8.0 | 0.00 | 0.00 | 0.00 | 55 | 1013.6 |
| 20260501211702 | 8 | 342 | 3.2 | 8.0 | 0.00 | 0.00 | 0.00 | 57 | 1013.6 |
| 20260501211623 | 8 | 343 | 3.2 | 8.0 | 0.00 | 0.00 | 0.00 | 57 | 1013.6 |
| 20260501211502 | 8 | 348 | 3.2 | 8.0 | 0.00 | 0.00 | 0.00 | 56 | 1013.6 |
| 20260501211402 | 8 | 347 | 3.2 | 8.0 | 0.00 | 0.00 | 0.00 | 55 | 1013.6 |
| 20260501211303 | 8 | 343 | 3.2 | 8.0 | 0.00 | 0.00 | 0.00 | 54 | 1013.6 |
| 20260501211202 | 8 | 340 | 3.2 | 8.0 | 0.00 | 0.00 | 0.00 | 54 | 1013.6 |
| 20260501211123 | 8 | 342 | 3.2 | 8.0 | 0.00 | 0.00 | 0.00 | 55 | 1013.6 |
| 20260501211023 | 8 | 341 | 1.6 | 8.0 | 0.00 | 0.00 | 0.00 | 54 | 1013.5 |
| 20260501210902 | 8 | 337 | 1.6 | 6.4 | 0.00 | 0.00 | 0.00 | 56 | 1013.5 |
| 20260501210802 | 8 | 341 | 1.6 | 6.4 | 0.00 | 0.00 | 0.00 | 55 | 1013.5 |
| 20260501210702 | 8 | 351 | 1.6 | 6.4 | 0.00 | 0.00 | 0.00 | 55 | 1013.5 |
| 20260501210602 | 8 | 346 | 1.6 | 4.8 | 0.00 | 0.00 | 0.00 | 56 | 1013.5 |
| 20260501210523 | 8 | 338 | 1.6 | 6.4 | 0.00 | 0.00 | 0.00 | 57 | 1013.5 |
| 20260501210403 | 8 | 346 | 1.6 | 6.4 | 0.00 | 0.00 | 0.00 | 55 | 1013.4 |
| 20260501210302 | 8 | 349 | 1.6 | 8.0 | 0.00 | 0.00 | 0.00 | 55 | 1013.4 |
| 20260501210202 | 8 | 352 | 3.2 | 8.0 | 0.00 | 0.00 | 0.00 | 53 | 1013.4 |
| 20260501210002 | 8 | 346 | 3.2 | 8.0 | 0.00 | 0.00 | 0.00 | 55 | 1013.4 |
| 20260501205902 | 8 | 346 | 3.2 | 8.0 | 0.00 | 0.00 | 0.00 | 54 | 1013.4 |
| 20260501205802 | 8 | 346 | 3.2 | 8.0 | 0.00 | 0.00 | 0.00 | 52 | 1013.4 |
| 20260501205702 | 8 | 344 | 3.2 | 8.0 | 0.00 | 0.00 | 0.00 | 52 | 1013.4 |
| 20260501205602 | 8 | 342 | 3.2 | 8.0 | 0.00 | 0.00 | 0.00 | 53 | 1013.5 |
| 20260501205502 | 8 | 342 | 3.2 | 8.0 | 0.00 | 0.00 | 0.00 | 54 | 1013.5 |
| 20260501205402 | 8 | 344 | 3.2 | 8.0 | 0.00 | 0.00 | 0.00 | 52 | 1013.4 |
| 20260501205305 | 8 | 345 | 3.2 | 8.0 | 0.00 | 0.00 | 0.00 | 53 | 1013.4 |
| 20260501205202 | 8 | 345 | 1.6 | 6.4 | 0.00 | 0.00 | 0.00 | 52 | 1013.4 |
| 20260501205123 | 8 | 346 | 1.6 | 6.4 | 0.00 | 0.00 | 0.00 | 55 | 1013.4 |
| 20260501205002 | 8 | 353 | 1.6 | 6.4 | 0.00 | 0.00 | 0.00 | 53 | 1013.4 |
| 20260501204902 | 8 | 354 | 1.6 | 6.4 | 0.00 | 0.00 | 0.00 | 53 | 1013.4 |
| 20260501204802 | 8 | 356 | 1.6 | 6.4 | 0.00 | 0.00 | 0.00 | 53 | 1013.4 |
| 20260501204702 | 8 | 358 | 1.6 | 6.4 | 0.00 | 0.00 | 0.00 | 56 | 1013.4 |
| 20260501204602 | 8 | 359 | 3.2 | 6.4 | 0.00 | 0.00 | 0.00 | 54 | 1013.3 |
| 20260501204523 | 8 | 358 | 3.2 | 6.4 | 0.00 | 0.00 | 0.00 | 55 | 1013.3 |
| 20260501204402 | 8 | 356 | 1.6 | 6.4 | 0.00 | 0.00 | 0.00 | 54 | 1013.3 |
| 20260501204302 | 8 | 355 | 1.6 | 6.4 | 0.00 | 0.00 | 0.00 | 54 | 1013.3 |
| 20260501204202 | 8 | 354 | 1.6 | 4.8 | 0.00 | 0.00 | 0.00 | 54 | 1013.3 |
| 20260501204102 | 8 | 355 | 1.6 | 4.8 | 0.00 | 0.00 | 0.00 | 56 | 1013.4 |
| 20260501204002 | 8 | 354 | 1.6 | 4.8 | 0.00 | 0.00 | 0.00 | 56 | 1013.4 |
| 20260501203902 | 8 | 352 | 1.6 | 4.8 | 0.00 | 0.00 | 0.00 | 56 | 1013.3 |
| 20260501203802 | 8 | 350 | 1.6 | 4.8 | 0.00 | 0.00 | 0.00 | 56 | 1013.4 |
| 20260501203702 | 8 | 348 | 1.6 | 4.8 | 0.00 | 0.00 | 0.00 | 53 | 1013.4 |
| 20260501203602 | 8 | 349 | 1.6 | 4.8 | 0.00 | 0.00 | 0.00 | 55 | 1013.3 |
| 20260501203502 | 8 | 351 | 1.6 | 4.8 | 0.00 | 0.00 | 0.00 | 55 | 1013.3 |
| 20260501203402 | 8 | 349 | 1.6 | 4.8 | 0.00 | 0.00 | 0.00 | 56 | 1013.3 |
| 20260501203302 | 8 | 343 | 1.6 | 4.8 | 0.00 | 0.00 | 0.00 | 55 | 1013.3 |
| 20260501203202 | 8 | 341 | 1.6 | 4.8 | 0.00 | 0.00 | 0.00 | 57 | 1013.3 |
| 20260501203102 | 8 | 340 | 1.6 | 4.8 | 0.00 | 0.00 | 0.00 | 56 | 1013.3 |
| 20260501203002 | 8 | 339 | 1.6 | 4.8 | 0.00 | 0.00 | 0.00 | 54 | 1013.3 |
| 20260501202902 | 8 | 342 | 1.6 | 4.8 | 0.00 | 0.00 | 0.00 | 54 | 1013.3 |
| 20260501202802 | 8 | 345 | 1.6 | 4.8 | 0.00 | 0.00 | 0.00 | 55 | 1013.3 |
| 20260501202723 | 8 | 347 | 1.6 | 4.8 | 0.00 | 0.00 | 0.00 | 55 | 1013.3 |
| 20260501202602 | 8 | 349 | 1.6 | 4.8 | 0.00 | 0.00 | 0.00 | 55 | 1013.4 |
| 20260501202502 | 8 | 350 | 1.6 | 4.8 | 0.00 | 0.00 | 0.00 | 54 | 1013.4 |
| 20260501202402 | 8 | 351 | 1.6 | 8.0 | 0.00 | 0.00 | 0.00 | 56 | 1013.4 |
| 20260501202306 | 8 | 354 | 1.6 | 8.0 | 0.00 | 0.00 | 0.00 | 56 | 1013.4 |
| 20260501202223 | 8 | 353 | 1.6 | 8.0 | 0.00 | 0.00 | 0.00 | 56 | 1013.4 |
| 20260501202102 | 8 | 351 | 1.6 | 8.0 | 0.00 | 0.00 | 0.00 | 55 | 1013.3 |
| 20260501202002 | 8 | 349 | 1.6 | 8.0 | 0.00 | 0.00 | 0.00 | 56 | 1013.4 |
| 20260501201902 | 8 | 348 | 1.6 | 8.0 | 0.00 | 0.00 | 0.00 | 55 | 1013.4 |
| 20260501201802 | 8 | 343 | 1.6 | 8.0 | 0.00 | 0.00 | 0.00 | 55 | 1013.4 |
| 20260501201702 | 8 | 347 | 3.2 | 9.7 | 0.00 | 0.00 | 0.00 | 54 | 1013.4 |
| 20260501201602 | 8 | 349 | 3.2 | 11.3 | 0.00 | 0.00 | 0.00 | 55 | 1013.4 |
| 20260501201502 | 8 | 347 | 3.2 | 11.3 | 0.00 | 0.00 | 0.00 | 54 | 1013.4 |
| 20260501201402 | 8 | 347 | 3.2 | 11.3 | 0.00 | 0.00 | 0.00 | 53 | 1013.4 |
| 20260501201302 | 8 | 347 | 3.2 | 11.3 | 0.00 | 0.00 | 0.00 | 53 | 1013.4 |
| 20260501201202 | 8 | 347 | 3.2 | 11.3 | 0.00 | 0.00 | 0.00 | 55 | 1013.4 |
| 20260501201123 | 8 | 346 | 3.2 | 11.3 | 0.00 | 0.00 | 0.00 | 55 | 1013.4 |
| 20260501201023 | 8 | 346 | 3.2 | 11.3 | 0.00 | 0.00 | 0.00 | 54 | 1013.4 |
| 20260501200902 | 8 | 348 | 3.2 | 11.3 | 0.00 | 0.00 | 0.00 | 55 | 1013.4 |
| 20260501200802 | 8 | 355 | 3.2 | 11.3 | 0.00 | 0.00 | 0.00 | 53 | 1013.3 |
| 20260501200702 | 8 | 351 | 3.2 | 11.3 | 0.00 | 0.00 | 0.00 | 52 | 1013.3 |
| 20260501200603 | 8 | 345 | 3.2 | 6.4 | 0.00 | 0.00 | 0.00 | 53 | 1013.3 |
| 20260501200502 | 8 | 344 | 1.6 | 6.4 | 0.00 | 0.00 | 0.00 | 52 | 1013.2 |
| 20260501200402 | 8 | 337 | 1.6 | 6.4 | 0.00 | 0.00 | 0.00 | 52 | 1013.2 |
| 20260501200302 | 9 | 338 | 1.6 | 6.4 | 0.00 | 0.00 | 0.00 | 51 | 1013.2 |
| 20260501200223 | 9 | 342 | 3.2 | 6.4 | 0.00 | 0.00 | 0.00 | 51 | 1013.1 |
| 20260501200023 | 9 | 356 | 1.6 | 9.7 | 0.00 | 0.00 | 0.00 | 51 | 1013.1 |
| 20260501195902 | 9 | 355 | 1.6 | 9.7 | 0.00 | 0.00 | 0.00 | 51 | 1013.2 |
| 20260501195802 | 9 | 345 | 1.6 | 9.7 | 0.00 | 0.00 | 0.00 | 51 | 1013.2 |
| 20260501195702 | 9 | 347 | 1.6 | 9.7 | 0.00 | 0.00 | 0.00 | 51 | 1013.2 |
| 20260501195602 | 9 | 354 | 1.6 | 9.7 | 0.00 | 0.00 | 0.00 | 51 | 1013.2 |
| 20260501195502 | 9 | 3 | 1.6 | 9.7 | 0.00 | 0.00 | 0.00 | 54 | 1013.1 |
| 20260501195402 | 9 | 14 | 1.6 | 9.7 | 0.00 | 0.00 | 0.00 | 53 | 1013.1 |
| 20260501195323 | 9 | 13 | 1.6 | 9.7 | 0.00 | 0.00 | 0.00 | 53 | 1013.1 |
| 20260501195202 | 9 | 8 | 1.6 | 8.0 | 0.00 | 0.00 | 0.00 | 52 | 1013.2 |
| 20260501195102 | 9 | 7 | 1.6 | 4.8 | 0.00 | 0.00 | 0.00 | 53 | 1013.2 |
| 20260501195002 | 9 | 2 | 1.6 | 4.8 | 0.00 | 0.00 | 0.00 | 53 | 1013.2 |
| 20260501194923 | 9 | 357 | 1.6 | 4.8 | 0.00 | 0.00 | 0.00 | 53 | 1013.2 |
| 20260501194802 | 9 | 355 | 1.6 | 4.8 | 0.00 | 0.00 | 0.00 | 52 | 1013.2 |
| 20260501194702 | 9 | 352 | 1.6 | 4.8 | 0.00 | 0.00 | 0.00 | 52 | 1013.2 |
| 20260501194603 | 9 | 350 | 1.6 | 4.8 | 0.00 | 0.00 | 0.00 | 52 | 1013.2 |
| 20260501194502 | 9 | 346 | 1.6 | 4.8 | 0.00 | 0.00 | 0.00 | 51 | 1013.2 |
| 20260501194402 | 9 | 337 | 1.6 | 4.8 | 0.00 | 0.00 | 0.00 | 55 | 1013.2 |
| 20260501194302 | 9 | 335 | 1.6 | 4.8 | 0.00 | 0.00 | 0.00 | 53 | 1013.2 |
| 20260501194202 | 9 | 336 | 1.6 | 6.4 | 0.00 | 0.00 | 0.00 | 53 | 1013.2 |
| 20260501194102 | 9 | 338 | 1.6 | 6.4 | 0.00 | 0.00 | 0.00 | 52 | 1013.1 |
| 20260501194023 | 9 | 344 | 1.6 | 6.4 | 0.00 | 0.00 | 0.00 | 52 | 1013.1 |
| 20260501193902 | 9 | 351 | 1.6 | 6.4 | 0.00 | 0.00 | 0.00 | 53 | 1013.1 |
| 20260501193802 | 9 | 351 | 1.6 | 6.4 | 0.00 | 0.00 | 0.00 | 50 | 1013.1 |
| 20260501193702 | 9 | 353 | 1.6 | 6.4 | 0.00 | 0.00 | 0.00 | 52 | 1013.1 |
| 20260501193602 | 9 | 354 | 1.6 | 6.4 | 0.00 | 0.00 | 0.00 | 51 | 1013.1 |
| 20260501193502 | 9 | 354 | 3.2 | 6.4 | 0.00 | 0.00 | 0.00 | 52 | 1013.1 |
| 20260501193402 | 9 | 356 | 3.2 | 6.4 | 0.00 | 0.00 | 0.00 | 50 | 1013.1 |
| 20260501193302 | 9 | 354 | 3.2 | 6.4 | 0.00 | 0.00 | 0.00 | 52 | 1013.1 |
| 20260501193223 | 9 | 355 | 3.2 | 6.4 | 0.00 | 0.00 | 0.00 | 52 | 1013.1 |
| 20260501193102 | 9 | 354 | 3.2 | 8.0 | 0.00 | 0.00 | 0.00 | 53 | 1013.0 |
| 20260501193002 | 9 | 350 | 3.2 | 8.0 | 0.00 | 0.00 | 0.00 | 52 | 1013.0 |
| 20260501192902 | 9 | 352 | 3.2 | 8.0 | 0.00 | 0.00 | 0.00 | 50 | 1013.0 |
| 20260501192823 | 9 | 351 | 3.2 | 8.0 | 0.00 | 0.00 | 0.00 | 52 | 1013.0 |
| 20260501192723 | 9 | 349 | 3.2 | 8.0 | 0.00 | 0.00 | 0.00 | 51 | 1013.0 |
| 20260501192602 | 9 | 349 | 3.2 | 8.0 | 0.00 | 0.00 | 0.00 | 51 | 1013.0 |
| 20260501192502 | 9 | 347 | 3.2 | 8.0 | 0.00 | 0.00 | 0.00 | 50 | 1013.0 |
| 20260501192402 | 9 | 351 | 3.2 | 9.7 | 0.00 | 0.00 | 0.00 | 51 | 1013.1 |
| 20260501192306 | 9 | 352 | 3.2 | 9.7 | 0.00 | 0.00 | 0.00 | 53 | 1013.0 |
| 20260501192202 | 9 | 352 | 3.2 | 9.7 | 0.00 | 0.00 | 0.00 | 51 | 1013.0 |
| 20260501192102 | 9 | 352 | 3.2 | 9.7 | 0.00 | 0.00 | 0.00 | 54 | 1013.0 |
| 20260501192002 | 9 | 350 | 3.2 | 9.7 | 0.00 | 0.00 | 0.00 | 52 | 1013.0 |
| 20260501191923 | 9 | 350 | 3.2 | 9.7 | 0.00 | 0.00 | 0.00 | 52 | 1012.9 |
| 20260501191802 | 9 | 353 | 3.2 | 9.7 | 0.00 | 0.00 | 0.00 | 54 | 1013.1 |
| 20260501191702 | 9 | 356 | 3.2 | 9.7 | 0.00 | 0.00 | 0.00 | 52 | 1013.1 |
| 20260501191623 | 9 | 357 | 3.2 | 9.7 | 0.00 | 0.00 | 0.00 | 52 | 1013.0 |
| 20260501191523 | 9 | 357 | 3.2 | 9.7 | 0.00 | 0.00 | 0.00 | 51 | 1013.0 |
| 20260501191402 | 9 | 355 | 1.6 | 9.7 | 0.00 | 0.00 | 0.00 | 50 | 1013.0 |
| 20260501191302 | 9 | 2 | 3.2 | 8.0 | 0.00 | 0.00 | 0.00 | 50 | 1013.1 |
| 20260501191202 | 9 | 2 | 3.2 | 8.0 | 0.00 | 0.00 | 0.00 | 51 | 1013.1 |
| 20260501191102 | 9 | 4 | 1.6 | 8.0 | 0.00 | 0.00 | 0.00 | 52 | 1013.1 |
| 20260501191002 | 9 | 5 | 1.6 | 8.0 | 0.00 | 0.00 | 0.00 | 53 | 1013.0 |
| 20260501190902 | 9 | 358 | 1.6 | 8.0 | 0.00 | 0.00 | 0.00 | 51 | 1013.0 |
| 20260501190802 | 9 | 1 | 1.6 | 8.0 | 0.00 | 0.00 | 0.00 | 51 | 1013.0 |
| 20260501190702 | 9 | 358 | 1.6 | 8.0 | 0.00 | 0.00 | 0.00 | 52 | 1013.0 |
| 20260501190602 | 8 | 356 | 1.6 | 4.8 | 0.00 | 0.00 | 0.00 | 53 | 1013.0 |
| 20260501190502 | 8 | 356 | 1.6 | 4.8 | 0.00 | 0.00 | 0.00 | 51 | 1013.0 |
| 20260501190402 | 8 | 356 | 1.6 | 4.8 | 0.00 | 0.00 | 0.00 | 53 | 1013.0 |
| 20260501190302 | 8 | 349 | 1.6 | 8.0 | 0.00 | 0.00 | 0.00 | 53 | 1013.0 |
| 20260501190202 | 8 | 348 | 3.2 | 8.0 | 0.00 | 0.00 | 0.00 | 52 | 1013.0 |
| 20260501190002 | 8 | 352 | 3.2 | 8.0 | 0.00 | 0.00 | 0.00 | 53 | 1013.1 |
| 20260501185902 | 8 | 354 | 3.2 | 8.0 | 0.00 | 0.00 | 0.00 | 53 | 1013.1 |
| 20260501185802 | 8 | 351 | 3.2 | 8.0 | 0.00 | 0.00 | 0.00 | 53 | 1013.0 |
| 20260501185702 | 8 | 351 | 1.6 | 8.0 | 0.00 | 0.00 | 0.00 | 53 | 1013.0 |
| 20260501185602 | 8 | 351 | 1.6 | 8.0 | 0.00 | 0.00 | 0.00 | 52 | 1013.0 |
| 20260501185502 | 8 | 351 | 1.6 | 8.0 | 0.00 | 0.00 | 0.00 | 52 | 1013.0 |
| 20260501185402 | 8 | 352 | 1.6 | 8.0 | 0.00 | 0.00 | 0.00 | 51 | 1013.0 |
| 20260501185305 | 9 | 1 | 1.6 | 8.0 | 0.00 | 0.00 | 0.00 | 51 | 1013.0 |
| 20260501185202 | 9 | 13 | 1.6 | 6.4 | 0.00 | 0.00 | 0.00 | 52 | 1013.0 |
| 20260501185102 | 9 | 21 | 1.6 | 6.4 | 0.00 | 0.00 | 0.00 | 52 | 1013.0 |
| 20260501185002 | 9 | 26 | 1.6 | 6.4 | 0.00 | 0.00 | 0.00 | 54 | 1012.9 |
| 20260501184902 | 9 | 21 | 1.6 | 6.4 | 0.00 | 0.00 | 0.00 | 52 | 1012.9 |
| 20260501184802 | 9 | 14 | 3.2 | 9.7 | 0.00 | 0.00 | 0.00 | 52 | 1012.8 |
| 20260501184702 | 9 | 11 | 3.2 | 9.7 | 0.00 | 0.00 | 0.00 | 53 | 1012.8 |
| 20260501184623 | 9 | 9 | 3.2 | 11.3 | 0.00 | 0.00 | 0.00 | 51 | 1012.8 |
| 20260501184502 | 9 | 11 | 3.2 | 11.3 | 0.00 | 0.00 | 0.00 | 52 | 1012.8 |
| 20260501184403 | 9 | 13 | 3.2 | 11.3 | 0.00 | 0.00 | 0.00 | 52 | 1012.8 |
| 20260501184302 | 9 | 4 | 3.2 | 11.3 | 0.00 | 0.00 | 0.00 | 52 | 1012.8 |
| 20260501184202 | 9 | 3 | 3.2 | 11.3 | 0.00 | 0.00 | 0.00 | 52 | 1012.8 |
| 20260501184102 | 9 | 357 | 3.2 | 11.3 | 0.00 | 0.00 | 0.00 | 53 | 1012.8 |
| 20260501184002 | 9 | 356 | 3.2 | 11.3 | 0.00 | 0.00 | 0.00 | 51 | 1012.8 |
| 20260501183902 | 9 | 357 | 3.2 | 11.3 | 0.00 | 0.00 | 0.00 | 52 | 1012.8 |
| 20260501183823 | 9 | 358 | 3.2 | 11.3 | 0.00 | 0.00 | 0.00 | 52 | 1012.8 |
| 20260501183702 | 9 | 4 | 3.2 | 11.3 | 0.00 | 0.00 | 0.00 | 53 | 1012.7 |
| 20260501183602 | 9 | 9 | 3.2 | 9.7 | 0.00 | 0.00 | 0.00 | 53 | 1012.7 |
| 20260501183502 | 9 | 3 | 3.2 | 9.7 | 0.00 | 0.00 | 0.00 | 53 | 1012.8 |